ECMWFFLT1_500_spd_000.txt.gz
Wind_Speed
24 25 27 28 28 27 26 24 24 26 28 30 32 33 34 34 35 35 35 36 36 36 37 37 39 40 41 42 42 43 44 45 47 46 46 45 46 48 47 45 44 42 39 38 38 38 39 41 41 41 41 39 37 38 38 37 36 37 40 40 39 40 41
24 26 28 28 27 28 28 28 27 28 30 31 33 34 35 36 37 37 37 37 37 37 37 38 39 39 40 41 42 43 44 45 45 45 45 45 46 47 46 44 44 43 41 40 39 39 40 41 42 42 42 39 37 39 39 38 38 38 41 42 40 39 40
25 27 28 27 28 30 30 29 29 30 31 32 34 35 36 37 38 38 38 38 39 38 39 39 39 39 40 40 41 42 43 44 45 45 44 44 44 46 45 43 41 42 42 42 41 41 40 41 41 41 41 40 39 39 38 39 39 39 41 42 41 40 41
26 28 29 28 30 32 32 31 31 31 32 34 35 36 37 38 39 38 39 40 41 40 40 40 40 40 40 40 41 42 43 44 44 44 44 44 43 44 45 43 41 39 39 39 40 40 40 40 39 40 40 38 39 40 39 40 40 40 41 43 42 41 40
26 29 30 29 31 33 34 34 34 34 34 36 37 38 38 39 39 39 40 41 42 42 42 41 41 42 42 42 42 42 42 43 43 43 43 43 42 43 44 43 40 38 37 37 37 39 40 39 39 39 40 38 39 40 40 41 42 41 42 44 42 41 40
27 30 29 28 32 35 36 37 36 36 36 38 39 40 39 39 39 40 41 42 42 42 42 42 42 42 43 43 43 43 42 41 41 41 41 41 40 40 41 42 39 37 37 37 37 38 39 39 39 39 40 40 40 40 40 42 43 41 41 43 43 41 41
28 30 29 29 33 36 36 37 37 37 38 39 41 41 40 40 40 42 42 42 42 42 42 42 42 43 43 43 43 42 41 40 39 39 39 38 37 37 38 38 37 38 38 38 37 37 38 38 38 38 38 38 39 39 39 40 41 40 41 43 43 42 41
28 29 29 30 33 36 36 36 37 38 38 39 40 41 40 40 42 43 43 43 42 42 42 42 42 42 41 41 41 40 39 39 39 38 36 35 35 36 36 35 36 38 39 38 36 36 36 36 36 36 37 37 37 37 37 37 38 37 37 39 40 40 40
28 30 30 31 35 36 35 35 37 38 39 39 40 41 41 42 43 44 43 43 43 43 42 42 41 41 40 39 39 39 38 38 38 36 35 33 33 34 35 35 36 36 36 36 34 34 35 35 35 35 35 36 36 35 34 35 35 35 34 34 35 36 36
28 30 31 34 36 35 33 34 37 39 40 41 41 41 42 42 43 44 44 44 44 43 42 42 42 41 39 38 38 37 37 36 36 35 35 34 34 34 35 35 35 34 33 32 31 32 34 34 34 33 33 33 33 32 32 32 32 33 33 32 31 32 33
28 30 32 36 36 34 34 36 38 39 40 41 41 42 42 42 42 43 43 43 43 43 43 43 42 40 39 37 36 36 35 34 34 34 35 34 35 35 34 33 32 31 29 28 28 29 32 32 31 30 30 29 29 29 30 30 30 31 31 32 32 31 32
28 30 33 36 36 34 35 38 40 41 41 41 41 41 41 42 42 42 43 43 43 43 43 43 42 40 39 37 36 35 34 33 33 34 34 34 34 33 31 29 29 27 26 26 26 26 27 28 28 27 27 28 27 27 27 27 29 30 30 32 33 33 33
29 31 35 37 36 35 37 40 41 41 41 41 41 41 41 42 43 43 44 44 44 43 43 43 42 41 39 37 36 35 34 33 34 34 34 33 33 30 28 27 26 25 24 25 25 25 25 24 25 26 26 26 26 26 26 25 25 27 28 30 32 33 33
31 33 35 37 37 36 38 41 42 41 41 41 41 41 42 42 43 44 45 46 45 44 44 43 42 41 40 37 35 34 33 33 33 32 32 32 30 28 25 25 25 23 22 21 22 24 25 23 24 25 24 23 24 24 25 24 23 23 25 28 30 31 32
33 35 36 38 37 36 39 42 42 41 41 41 41 42 42 43 44 45 46 47 46 45 44 43 42 41 40 37 35 33 33 33 33 31 30 29 28 26 25 24 22 20 20 18 18 20 23 22 21 21 19 19 21 23 24 24 24 24 25 27 29 29 30
35 36 38 38 37 37 40 43 42 41 41 41 41 42 43 44 45 45 46 47 47 46 44 42 40 39 39 37 35 33 33 32 32 30 28 27 27 26 24 23 20 19 19 19 18 20 21 20 18 17 15 16 18 20 22 23 24 24 24 26 27 28 28
37 37 38 38 37 38 41 42 41 42 42 42 43 43 44 45 45 45 46 47 47 46 44 41 38 38 38 37 34 33 32 31 30 28 26 25 26 26 24 22 20 19 20 20 19 19 19 18 17 15 14 15 16 18 20 21 22 23 23 24 25 26 26
38 38 37 37 38 40 42 42 41 41 42 43 43 44 44 45 45 45 46 47 47 46 43 40 38 38 38 36 33 32 31 30 29 27 25 25 25 25 24 22 19 17 18 19 19 18 17 16 16 16 15 15 16 17 18 19 21 23 23 22 23 25 25
38 37 36 37 39 42 43 42 41 41 42 43 43 44 44 44 45 45 45 46 46 44 41 39 37 37 36 34 31 30 29 29 27 26 25 24 24 23 23 23 20 16 16 16 16 17 17 15 14 16 16 17 17 17 17 18 19 20 20 20 22 24 24
37 36 36 38 40 42 42 41 40 42 43 43 43 44 44 44 45 45 45 45 45 42 39 37 36 36 34 32 30 29 28 27 26 26 25 23 23 22 22 22 20 17 17 16 15 16 16 14 14 15 16 16 16 17 17 17 17 17 17 18 21 23 24
38 38 38 39 40 41 41 40 40 42 43 43 44 44 44 45 45 45 45 44 42 40 37 35 35 36 34 32 29 28 26 26 25 25 25 24 23 21 20 21 19 17 17 16 15 16 15 14 14 15 15 15 15 15 17 17 16 16 17 18 20 22 23
41 40 39 39 39 39 38 38 40 42 42 43 43 44 45 45 45 44 43 41 40 38 35 33 34 34 33 31 28 27 26 25 25 25 25 24 24 21 19 19 19 17 15 14 14 15 15 14 14 14 14 14 13 13 15 16 16 18 19 17 16 19 20
42 40 39 39 38 36 36 38 41 42 42 42 43 43 44 44 43 42 41 40 39 37 33 31 32 31 29 28 28 27 25 25 26 25 25 25 24 23 20 19 19 18 16 14 13 13 15 15 13 12 11 11 11 11 13 14 16 19 21 18 14 14 15
41 40 40 39 36 34 36 39 41 41 40 41 42 43 43 43 42 41 41 40 38 35 31 29 30 29 28 28 28 27 26 26 26 26 25 24 23 23 21 20 19 17 16 14 13 13 15 15 13 10 9 8 8 8 10 11 14 18 20 19 16 12 12
43 42 41 39 36 36 37 39 40 40 39 40 42 43 43 42 41 41 41 40 37 34 31 29 30 31 31 30 29 27 26 26 26 26 25 24 22 21 21 20 18 16 14 14 13 13 13 14 12 10 8 6 5 5 7 9 11 14 17 19 17 13 16
43 42 41 40 39 39 39 40 41 40 39 41 42 42 41 40 40 40 40 39 36 34 33 31 30 31 32 32 29 26 25 26 26 25 25 24 22 20 19 19 18 16 13 12 12 12 12 12 11 9 8 6 4 5 4 5 8 10 13 15 14 12 14
42 42 42 41 41 41 41 40 40 40 41 42 42 41 40 38 38 39 39 37 36 35 34 33 31 31 31 31 29 26 25 26 26 25 24 23 22 19 18 18 18 17 13 11 11 11 11 10 10 9 8 7 5 4 6 2 5 9 11 12 14 15 11
43 43 43 42 42 42 41 41 41 42 43 42 40 39 38 38 38 39 38 37 37 36 35 34 32 31 30 29 28 27 26 26 25 24 22 22 22 20 18 17 17 17 15 12 10 11 11 9 10 10 10 8 6 4 4 5 1 6 12 13 16 19 15
44 43 43 43 43 42 42 42 42 43 43 41 39 37 37 38 39 40 39 39 37 35 33 33 33 31 29 28 27 26 25 25 25 23 21 21 21 20 19 17 16 16 15 12 11 11 11 9 9 11 13 11 8 6 4 3 4 2 9 14 18 21 18
45 44 44 44 44 43 42 42 43 43 42 40 38 38 38 39 40 41 39 38 35 32 30 31 32 30 28 26 24 22 22 22 23 23 21 20 20 20 19 17 16 15 15 13 12 11 11 9 9 10 13 13 12 9 7 7 5 2 2 9 17 21 18
44 43 44 44 44 44 44 43 43 43 41 38 38 39 39 40 41 41 38 34 32 29 27 28 30 29 27 25 22 19 19 20 21 21 21 21 20 19 18 17 16 15 15 14 13 12 11 10 9 10 11 13 14 13 10 8 9 7 3 2 9 17 20
43 43 44 45 45 45 45 44 43 42 41 39 38 39 40 40 40 39 37 34 31 28 25 25 27 27 25 23 20 19 20 20 20 21 21 21 20 19 18 17 16 15 15 15 15 14 13 11 9 9 10 11 13 14 13 10 9 9 7 5 3 8 16
44 44 44 45 46 46 45 44 42 41 40 39 38 39 40 39 38 37 36 34 31 27 24 23 24 24 23 21 19 19 20 20 19 20 20 20 19 18 18 17 16 16 16 16 16 16 15 13 11 10 9 9 10 13 13 12 10 9 9 7 5 4 7
45 45 45 45 46 46 45 43 41 39 38 37 37 39 39 39 37 36 35 32 29 27 24 22 21 21 21 20 19 18 18 19 18 18 19 19 18 17 17 17 16 15 15 16 16 16 16 15 14 12 11 9 9 10 12 13 11 10 9 8 7 6 5
44 45 45 45 46 46 45 42 40 38 37 36 36 37 39 39 38 36 34 30 26 24 23 22 20 19 20 20 19 18 17 18 18 18 18 18 18 17 16 16 15 15 14 15 16 16 16 16 15 14 13 12 10 9 10 12 13 11 10 9 8 7 7
44 45 45 45 46 45 42 39 37 37 37 37 37 37 40 41 39 37 34 29 25 23 23 21 19 19 19 20 19 18 18 19 19 19 18 18 19 18 17 16 15 14 13 14 14 15 15 15 16 16 15 14 13 11 10 11 13 13 12 11 10 9 8
44 45 46 45 44 42 38 37 37 38 39 40 39 39 41 42 40 37 34 30 25 24 23 22 20 19 19 19 19 19 19 20 20 20 19 18 18 19 18 17 16 14 13 12 13 14 14 14 15 15 16 15 15 14 12 11 12 14 14 13 12 11 10
46 47 47 46 44 42 41 40 42 42 41 40 39 38 40 43 42 38 33 29 25 23 23 23 23 21 20 19 19 20 20 21 22 22 20 19 18 18 19 19 18 17 15 13 12 12 13 13 13 14 15 15 16 16 15 13 13 13 14 15 15 14 12

ECMWFFLT1_500_spd_003.txt.gz
Wind_Speed
19 21 23 25 26 26 24 23 25 28 29 29 28 28 30 32 34 35 35 36 36 37 37 38 40 40 41 41 41 41 42 44 45 45 46 46 46 45 44 44 44 44 44 44 43 41 41 41 40 38 37 37 36 36 37 38 38 38 38 39 40 40 40
21 23 25 27 28 28 27 26 28 30 31 31 30 31 32 35 36 36 36 36 36 37 38 39 40 41 41 41 41 42 43 44 45 45 46 46 46 46 45 43 42 42 43 43 43 42 40 40 39 39 39 40 40 39 40 40 40 40 40 40 41 40 40
22 24 26 28 30 30 28 28 30 31 33 33 32 32 34 36 37 37 37 36 36 37 39 40 41 41 42 43 43 43 43 44 44 45 45 45 45 45 44 43 41 40 41 41 43 43 41 40 39 39 39 40 41 41 42 43 42 41 40 40 42 42 41
23 24 26 29 30 30 28 30 32 32 33 34 33 33 35 37 37 37 37 37 37 38 40 41 42 42 43 44 44 45 44 44 44 45 45 44 44 43 42 42 40 39 38 38 40 41 41 40 39 39 39 40 40 41 42 42 42 42 41 40 41 43 42
24 24 26 29 31 30 29 31 33 33 33 34 33 35 38 38 38 38 38 38 38 39 41 42 42 43 45 46 46 47 46 46 45 45 45 43 42 41 40 39 38 37 37 37 38 39 40 39 39 38 39 41 41 41 42 42 42 42 42 41 40 41 41
24 25 26 29 31 31 31 33 34 33 34 34 34 37 40 40 39 39 39 39 39 40 41 42 43 44 45 47 48 48 48 47 47 46 44 42 41 40 39 38 37 36 37 38 39 39 40 40 39 39 40 42 42 41 42 42 42 42 42 41 40 40 40
24 25 26 29 31 31 33 35 34 34 35 34 35 38 40 40 40 40 40 40 41 42 42 43 44 45 46 47 48 49 49 48 48 47 45 42 40 39 38 38 38 38 38 39 39 40 40 41 40 39 39 41 41 41 41 41 41 41 41 41 41 41 41
25 25 27 28 29 30 33 35 34 34 35 35 36 39 40 40 40 40 41 41 42 43 44 44 45 45 47 48 48 49 49 49 48 48 45 42 40 39 39 39 39 40 40 40 39 39 39 40 39 37 37 38 39 39 39 39 39 39 40 40 40 41 41
25 26 26 27 28 30 34 35 35 35 35 35 37 39 40 40 40 40 41 42 43 44 44 45 45 46 47 48 49 49 49 48 47 46 44 41 40 39 39 40 40 40 40 39 39 38 38 37 35 34 34 34 36 37 37 37 37 37 38 39 39 40 40
25 26 26 26 28 31 34 35 35 35 35 36 37 39 40 39 39 39 40 41 42 43 44 45 45 46 48 49 50 50 48 46 45 44 42 41 40 40 39 40 39 38 37 37 37 36 35 34 32 31 31 31 33 35 35 35 35 35 36 37 38 39 38
25 25 26 27 29 32 35 36 35 35 35 37 38 39 40 40 39 39 41 41 42 43 44 44 45 46 48 49 50 50 47 45 43 42 41 40 39 39 39 38 37 36 35 34 34 34 33 32 31 29 28 29 30 33 34 33 33 33 33 34 36 36 35
25 25 26 28 31 34 35 36 35 35 36 38 39 41 41 40 40 40 41 41 42 43 44 45 46 47 48 49 49 48 45 43 42 40 39 38 38 37 37 36 35 34 33 33 33 32 30 30 29 28 27 28 30 30 31 31 31 32 31 31 32 32 33
25 25 27 29 32 35 36 36 36 36 38 39 40 42 42 41 40 41 42 43 43 44 45 46 46 47 48 48 47 46 44 42 40 38 37 36 36 35 34 34 33 32 32 32 31 29 28 27 26 25 24 26 28 27 27 28 30 30 29 28 28 29 31
25 26 28 31 34 35 36 36 36 37 39 40 42 44 43 42 41 43 44 44 45 46 47 47 47 46 46 46 46 44 42 40 39 36 35 35 34 33 32 32 32 31 32 31 28 27 27 26 24 23 23 24 25 24 23 25 27 28 28 27 26 26 28
26 27 29 32 34 35 36 36 37 39 40 42 44 45 44 43 43 44 45 46 47 48 48 47 47 46 45 45 44 42 40 39 37 35 34 34 33 32 31 31 31 31 32 29 26 26 26 24 22 22 22 23 22 18 17 19 22 24 25 25 25 25 25
27 28 31 33 34 35 35 36 39 41 42 43 45 45 44 43 44 45 46 47 48 49 48 47 46 46 44 43 42 40 39 39 37 34 34 33 32 31 31 30 30 31 31 28 25 25 23 21 20 20 20 21 19 15 14 16 17 18 21 23 24 24 24
29 31 33 33 34 34 35 38 41 43 43 44 45 45 44 43 45 47 48 48 49 49 48 48 47 45 44 42 41 39 38 39 37 34 32 32 30 29 30 31 30 30 30 28 25 24 22 21 20 20 19 17 15 14 14 15 16 16 17 20 21 23 24
32 34 34 33 33 34 36 41 43 43 43 44 45 44 43 43 45 47 49 49 50 49 48 48 47 45 44 42 40 37 37 37 36 33 31 30 29 28 29 31 31 31 30 29 27 25 24 23 23 22 19 15 14 15 16 15 16 16 17 18 19 22 24
35 35 34 33 32 34 38 42 42 41 43 44 45 44 43 43 46 48 49 50 49 49 48 48 47 45 43 41 38 35 34 34 32 30 30 30 28 27 28 30 30 31 30 29 27 26 25 25 24 22 18 15 15 16 17 17 17 18 18 18 19 21 22
35 34 33 33 33 36 40 42 40 40 43 44 44 43 42 44 47 48 49 49 48 48 48 48 46 44 42 39 35 33 32 31 30 30 30 30 28 27 28 29 30 30 30 29 27 27 26 24 21 19 16 14 15 16 17 18 18 18 19 19 20 19 19
34 34 34 34 36 39 42 41 40 41 42 44 43 42 43 45 47 48 48 48 48 48 48 47 45 43 40 37 33 32 31 31 32 31 31 30 29 28 27 28 29 29 29 28 27 26 25 22 19 17 14 13 13 15 17 19 19 19 19 19 19 17 16
33 34 35 37 39 41 41 40 40 40 40 42 43 42 44 46 47 47 47 47 48 48 48 46 44 43 41 37 34 32 31 31 32 33 32 31 30 28 27 27 28 28 27 27 26 25 23 20 17 16 14 11 11 14 17 20 20 19 19 18 17 16 17
33 34 36 38 40 41 41 41 40 38 38 40 42 42 44 45 46 46 46 46 47 47 47 45 43 42 41 39 36 33 31 30 31 32 32 31 29 27 26 26 27 27 26 25 25 24 22 19 17 16 15 12 10 11 15 19 21 20 18 18 15 15 17
34 35 37 39 40 41 42 41 40 38 38 40 42 43 43 44 45 46 46 46 47 46 45 44 43 43 42 40 37 33 30 29 30 31 31 30 28 26 24 24 25 25 24 24 23 22 21 19 17 16 16 15 13 13 12 15 19 21 17 15 12 11 12
35 36 38 40 41 42 42 42 41 40 40 41 43 43 43 44 45 46 46 47 46 45 44 43 43 44 43 40 36 32 30 29 29 30 31 29 28 26 23 23 23 23 23 23 21 20 20 19 17 17 17 17 16 16 11 10 14 17 16 12 8 9 11
36 38 40 42 43 43 43 42 42 42 43 43 44 45 45 45 46 46 47 46 45 43 42 42 43 43 41 38 34 30 29 29 29 30 30 29 28 26 23 22 22 21 22 22 21 19 18 18 18 18 19 18 18 17 14 9 9 9 13 11 11 13 13
38 40 42 43 44 44 44 44 44 45 46 46 46 46 46 46 47 47 46 45 43 41 40 40 41 41 38 35 32 30 29 29 29 30 29 28 26 24 22 22 21 20 20 21 21 18 17 18 19 19 20 20 20 18 16 13 9 6 8 11 16 18 15
41 42 43 43 44 44 45 45 46 47 48 48 48 48 47 46 47 46 44 42 41 39 39 39 40 39 38 35 32 30 29 28 28 28 27 25 24 22 21 21 21 20 19 20 20 19 17 17 19 21 21 22 22 20 17 17 14 9 6 7 14 21 20
42 43 44 44 45 46 46 46 47 47 48 49 49 49 48 47 46 45 43 41 40 39 39 39 39 38 38 36 32 30 29 28 26 25 24 22 21 21 20 21 20 19 19 19 19 18 16 16 17 20 21 22 23 23 20 18 17 14 10 7 7 14 19
44 44 45 45 46 46 46 47 47 48 48 49 50 49 48 47 46 45 42 40 39 39 39 38 38 37 37 35 31 29 29 27 24 22 21 21 21 21 21 20 20 19 19 18 18 18 17 15 15 17 19 20 22 23 22 20 18 17 15 11 7 7 10
45 45 45 45 45 46 47 47 48 48 49 50 50 50 48 46 45 43 40 38 37 37 37 37 37 36 35 34 31 28 28 26 23 21 20 20 20 21 21 20 20 19 18 18 17 17 17 15 14 15 16 18 19 21 21 20 19 18 16 14 10 7 6
44 44 44 44 45 46 47 48 48 49 49 50 50 49 47 45 43 40 37 35 35 37 37 37 36 35 34 33 30 27 27 27 24 21 20 19 20 20 20 20 19 18 18 17 17 17 16 16 15 15 15 16 17 18 20 21 20 18 17 15 12 8 6
43 43 43 44 45 46 47 48 48 48 49 49 49 47 46 44 42 38 36 35 36 38 39 37 35 34 33 32 29 26 26 26 24 22 21 19 19 19 20 19 19 18 18 17 17 17 16 16 15 15 15 15 16 16 18 20 20 19 17 15 14 10 8
43 43 44 45 46 47 48 48 48 49 49 49 49 47 45 42 40 38 37 37 38 40 40 37 36 35 33 32 29 26 25 25 23 21 20 20 19 20 20 20 19 19 18 17 17 17 17 16 15 16 16 15 15 16 16 18 20 20 18 16 14 12 10
43 44 45 46 47 48 48 48 48 49 49 49 48 47 44 41 40 39 39 39 39 39 39 38 38 37 33 30 29 26 25 24 23 21 20 20 19 20 20 19 20 20 20 18 17 16 17 17 16 15 15 15 15 16 16 17 18 20 20 18 15 13 11
45 45 46 47 48 48 49 49 48 49 49 49 47 45 42 40 40 40 40 39 38 38 38 39 39 36 31 27 26 25 24 24 23 22 21 20 20 20 20 20 20 20 20 19 17 16 15 16 16 15 15 15 15 16 16 16 17 18 20 20 18 16 14
47 47 48 48 49 49 48 48 48 48 48 47 46 44 42 40 39 39 38 37 36 36 36 35 34 30 27 24 23 22 22 23 22 22 22 22 21 21 22 22 22 20 19 18 17 16 15 15 16 15 15 15 14 14 15 16 16 17 18 20 20 18 16
49 49 49 50 49 48 47 47 47 46 46 45 43 42 41 40 38 37 36 35 35 34 32 29 27 26 25 23 20 20 21 21 21 22 22 21 20 20 21 23 23 22 20 18 16 16 16 16 17 17 15 15 14 14 14 15 15 16 16 18 19 20 19

ECMWFFLT1_500_spd_006.txt.gz
Wind_Speed
22 23 23 22 23 25 27 28 25 24 26 26 26 27 29 29 28 28 30 31 32 31 31 31 31 32 33 33 33 34 35 35 36 37 38 40 41 42 43 44 44 44 44 43 43 42 40 39 38 38 38 37 35 35 36 37 39 40 40 39 39 39 42
23 25 24 23 24 26 28 29 27 26 27 27 27 27 29 29 28 28 31 32 32 32 32 32 32 33 34 35 35 36 36 37 37 38 38 40 41 43 44 45 45 44 44 43 42 41 40 39 37 36 37 36 35 35 35 35 37 39 41 42 40 39 39
25 26 25 24 25 28 30 30 29 28 29 28 27 28 29 29 29 29 31 33 33 32 33 33 34 34 35 36 37 38 38 39 39 39 40 40 42 43 44 45 45 44 43 42 41 41 40 39 38 37 36 37 36 35 35 35 36 38 41 43 43 42 40
25 26 26 25 27 29 31 32 31 30 31 30 28 29 30 30 29 30 32 34 33 33 33 34 35 36 37 38 39 40 40 41 41 41 42 42 43 44 45 45 43 43 42 42 41 40 39 39 39 38 38 37 38 36 36 36 36 38 41 43 44 44 44
26 26 26 27 29 31 32 32 32 33 33 31 30 30 30 30 30 31 34 34 34 34 34 35 36 37 38 40 41 42 42 42 43 43 44 45 46 46 46 44 43 42 41 41 40 40 40 40 40 40 39 38 38 37 36 36 37 38 40 43 44 44 45
26 26 27 28 30 31 32 33 34 35 34 32 31 31 31 31 31 33 35 35 35 35 35 36 37 38 39 41 42 43 43 43 44 45 46 47 48 47 46 44 42 41 41 40 40 40 40 40 40 40 39 38 38 38 38 37 37 38 38 41 43 44 44
27 27 27 29 30 31 32 34 35 36 34 33 32 32 32 32 33 34 36 36 36 37 37 37 39 40 41 42 43 44 44 45 46 47 48 48 48 47 45 43 41 40 40 39 39 39 38 38 37 37 37 37 37 38 39 39 38 38 38 38 40 42 43
27 27 28 29 30 32 33 35 36 36 34 33 33 32 32 33 34 36 37 37 38 38 38 39 40 41 42 43 44 45 45 46 47 48 48 48 47 46 44 41 39 38 38 38 38 38 37 36 35 35 36 37 37 37 38 38 37 37 38 37 37 39 41
27 27 28 29 30 32 34 35 36 36 35 34 33 32 33 34 35 37 38 38 39 39 39 40 41 42 43 44 45 46 46 47 48 49 48 47 46 43 41 39 37 37 37 37 37 36 36 35 34 34 35 36 36 35 35 36 36 37 38 36 34 35 38
28 28 28 29 31 33 35 36 37 36 35 33 33 34 34 35 37 39 39 39 40 40 40 40 42 43 44 45 46 46 47 48 48 48 48 46 44 41 39 36 35 35 35 35 35 34 34 34 34 34 35 35 34 33 33 32 33 34 35 34 32 32 35
29 29 29 30 32 34 35 36 37 36 34 33 34 35 35 36 39 40 40 40 41 41 41 41 42 44 45 46 47 47 48 48 49 48 47 45 42 40 37 35 33 33 33 33 33 33 32 33 34 34 33 32 31 31 31 30 31 32 33 33 32 32 33
29 30 30 31 33 34 36 37 37 35 34 34 35 35 36 38 40 40 40 41 42 42 42 42 43 45 46 47 48 48 49 49 49 48 46 44 41 39 37 33 31 31 31 32 32 32 32 32 34 35 34 32 31 30 29 28 29 30 31 32 32 31 32
29 30 31 32 33 35 37 37 36 34 35 36 36 36 37 39 41 41 42 43 43 43 43 43 44 46 47 48 48 49 50 50 49 47 46 44 40 38 36 32 30 29 30 31 32 32 32 32 34 35 35 32 30 28 27 27 28 28 28 30 30 29 29
29 31 32 34 35 36 37 36 34 34 36 37 37 38 39 40 42 43 43 44 44 43 43 44 46 47 48 49 49 50 51 51 49 47 45 43 39 37 34 31 29 28 29 30 31 32 32 32 33 34 34 32 28 26 27 27 27 28 26 26 27 28 29
30 32 34 34 35 36 36 34 34 35 37 38 38 39 40 42 43 44 45 45 44 44 44 45 47 48 49 50 50 51 52 51 49 46 44 41 38 36 33 30 29 29 29 29 31 32 32 32 31 32 33 32 29 27 29 28 26 26 25 24 25 27 30
31 33 34 35 36 36 34 33 34 36 38 38 39 40 41 43 45 45 45 45 44 44 45 46 48 49 50 50 51 51 52 51 48 45 43 40 38 36 33 31 31 30 30 30 31 33 33 33 32 31 31 32 31 29 29 28 26 25 25 25 24 25 27
32 33 34 35 36 34 33 34 36 37 38 38 40 41 42 45 46 45 45 44 44 44 45 47 48 50 50 50 50 50 51 50 47 44 42 40 38 37 35 33 32 31 31 31 32 32 33 33 32 31 31 31 31 29 28 28 28 26 24 25 25 24 23
33 34 34 35 35 34 34 35 37 38 38 39 40 42 44 46 46 45 45 44 44 45 46 48 49 50 50 50 49 49 50 49 47 44 42 39 38 38 37 35 33 31 32 32 32 31 32 33 32 31 30 30 30 30 28 26 26 26 25 25 25 24 22
33 33 34 34 34 34 36 37 38 38 38 39 41 43 45 46 46 45 45 45 45 46 47 48 49 50 50 49 49 49 49 48 47 45 43 40 37 37 37 36 33 31 31 32 31 31 31 32 32 30 29 29 29 29 27 24 23 24 27 27 25 25 24
32 33 33 33 34 35 36 37 38 39 39 40 41 43 45 46 46 46 45 45 46 47 48 49 49 49 49 49 48 48 48 48 47 46 43 40 37 36 36 36 34 32 31 31 31 29 30 31 31 30 28 27 27 27 25 22 21 22 26 27 25 24 24
32 32 33 33 34 35 36 37 38 39 41 42 42 44 45 46 47 46 46 46 47 47 48 49 49 49 49 49 49 48 48 48 47 46 43 39 36 36 36 36 34 32 31 30 30 28 29 30 30 29 28 27 26 26 23 21 22 22 23 26 26 23 22
32 32 32 33 34 35 36 38 40 41 43 43 44 44 45 46 46 46 46 47 47 48 48 48 49 49 49 49 49 48 48 48 47 45 42 38 36 36 37 36 34 32 31 30 29 28 28 30 30 29 28 27 26 26 23 21 24 24 22 23 25 22 19
31 31 32 34 35 36 38 40 42 43 44 45 45 46 46 46 46 46 46 47 48 48 48 48 49 49 49 49 48 47 47 46 45 43 40 37 36 36 37 36 34 32 31 30 28 27 27 29 29 28 27 26 26 26 25 24 25 25 22 20 22 21 17
31 32 33 35 36 38 40 42 44 45 46 46 46 46 46 46 46 46 47 48 49 49 49 48 49 49 48 48 47 46 45 44 43 41 39 37 35 35 35 34 32 31 30 28 26 25 26 28 28 27 26 26 26 26 27 26 26 26 24 19 18 17 14
32 33 34 36 38 40 42 44 45 46 47 47 47 46 46 46 46 47 48 49 49 50 49 48 48 47 47 46 45 44 43 42 40 39 38 37 35 34 33 32 30 29 28 26 24 23 25 26 26 25 24 25 26 26 27 28 27 26 25 21 17 15 15
32 34 36 38 40 42 44 45 46 46 47 47 47 47 47 47 47 48 49 50 50 50 49 47 46 45 44 43 43 42 41 40 38 38 38 36 34 32 31 30 28 26 25 24 23 22 23 25 25 23 23 24 26 27 28 29 28 26 26 25 20 15 15
33 35 37 40 42 44 45 45 45 46 46 47 48 48 48 49 49 50 51 51 51 50 48 46 44 43 42 41 41 40 39 38 37 37 37 34 32 31 30 28 26 24 23 23 23 22 22 24 24 22 22 23 24 25 26 27 28 27 26 26 23 18 14
35 37 39 42 44 45 46 46 46 46 47 48 48 49 50 50 50 51 51 51 51 50 48 46 43 41 40 40 39 38 37 37 37 37 36 34 31 30 28 26 24 23 22 22 22 22 22 23 23 22 21 22 23 23 24 25 26 27 26 26 24 21 16
38 40 41 43 45 46 46 47 47 48 48 48 49 50 51 51 51 51 51 51 51 49 47 45 43 40 38 38 38 38 38 38 37 36 36 33 30 28 27 26 24 23 22 21 21 21 21 22 23 22 21 21 22 22 22 22 24 25 25 25 24 22 18
39 41 43 45 46 47 48 48 49 49 48 48 49 50 50 51 52 52 52 51 50 48 46 45 43 39 38 38 39 39 39 38 37 36 35 33 30 27 26 25 25 23 21 20 20 20 20 21 22 22 21 21 22 22 22 21 21 22 24 24 24 22 18
41 43 45 46 47 47 48 48 48 48 48 48 48 49 50 51 52 52 51 50 48 47 47 45 43 40 39 39 39 40 39 37 36 36 35 33 29 27 25 25 24 23 20 20 20 20 19 19 20 21 21 21 21 21 21 22 21 20 21 22 23 21 18
43 45 46 46 46 46 46 46 46 46 47 47 48 49 50 51 51 50 49 48 48 48 47 44 42 40 40 40 40 39 37 37 37 37 35 32 29 26 25 25 24 22 21 20 20 20 19 19 19 20 20 20 21 21 21 22 21 20 19 20 20 20 19
45 46 46 45 45 45 45 45 45 46 47 47 48 49 49 49 48 48 48 47 47 47 47 45 42 40 39 39 38 37 36 36 37 36 33 30 28 26 25 24 24 23 21 20 20 20 20 20 19 19 19 19 20 21 21 21 22 21 19 19 19 18 18
46 47 46 45 44 45 45 45 45 46 47 48 48 48 48 47 47 47 47 46 46 46 45 43 40 37 36 36 36 34 34 34 34 32 29 28 27 26 24 24 24 23 22 20 20 20 20 21 20 19 18 17 18 20 20 21 21 21 21 20 19 18 17
47 47 46 45 45 45 45 45 46 47 47 48 48 48 48 47 46 46 45 45 44 43 42 40 37 34 33 33 33 32 31 30 30 29 27 26 27 26 24 24 25 25 23 20 20 20 20 21 21 20 19 17 16 18 20 20 21 21 21 21 21 20 18
47 47 47 46 47 47 47 47 47 48 48 48 48 48 47 46 45 45 44 44 42 41 40 39 37 33 31 31 32 31 30 30 29 29 28 27 27 26 25 24 25 25 24 22 21 21 20 21 21 21 20 19 17 16 18 20 21 21 21 21 21 21 20
48 48 48 48 48 49 49 49 49 49 48 48 48 47 45 44 44 44 44 43 42 41 40 38 36 34 32 31 32 32 31 31 31 30 29 28 26 26 26 25 25 25 24 23 22 21 20 21 21 21 21 20 19 17 18 19 20 20 20 20 20 20 20
50 50 49 49 49 49 50 50 50 49 49 48 47 45 44 43 44 44 44 43 41 40 39 37 35 33 32 31 32 32 31 30 31 30 30 28 26 26 25 26 25 25 24 23 22 20 19 19 21 21 21 21 21 20 19 19 19 19 19 20 20 20 20

ECMWFFLT1_500_spd_009.txt.gz
Wind_Speed
20 20 20 20 21 21 21 21 23 25 25 26 27 27 28 28 29 29 30 31 31 30 29 30 32 32 32 32 32 32 32 33 34 35 36 36 36 37 38 39 40 41 42 43 42 40 37 35 34 33 33 33 32 31 32 33 34 33 34 35 36 38 40
22 22 22 23 23 23 22 22 24 25 26 27 28 28 29 29 29 30 31 32 32 30 29 31 32 32 32 32 32 32 33 34 35 36 37 37 37 37 39 40 41 42 42 42 41 38 36 34 33 33 33 33 33 33 32 33 34 35 34 35 35 36 38
24 24 24 25 25 26 24 24 25 26 27 28 29 29 30 30 30 31 32 33 32 30 30 31 33 33 33 33 33 33 34 34 35 36 37 37 38 39 40 42 42 43 43 42 40 37 34 33 33 32 32 33 34 34 34 34 34 35 35 35 36 37 37
26 25 26 25 26 27 27 26 26 27 29 29 30 30 31 31 31 31 33 33 32 30 30 32 34 34 34 33 34 34 35 36 36 37 37 38 39 40 41 43 44 44 43 42 39 35 34 33 33 33 33 34 35 35 36 36 35 35 35 35 36 37 38
26 26 26 26 27 28 28 28 28 28 29 30 30 31 31 32 32 32 34 34 32 31 31 34 35 35 35 34 34 35 36 37 38 38 38 38 39 41 42 44 45 44 43 42 38 35 33 33 33 33 34 34 36 36 36 37 36 36 35 36 36 37 38
27 28 28 28 29 29 29 29 29 29 30 30 30 31 31 32 32 33 34 34 33 32 33 35 36 36 36 35 35 36 37 38 39 39 39 40 40 42 44 45 45 45 44 42 39 36 34 33 33 33 34 35 36 36 35 35 35 35 35 36 37 37 39
27 28 29 29 30 30 30 30 30 30 30 30 31 32 32 32 33 34 35 35 34 33 34 36 37 37 37 36 36 37 38 39 39 40 41 41 41 43 45 46 46 45 44 42 39 37 35 34 32 33 34 35 35 34 33 33 33 34 34 35 36 37 38
27 28 29 30 30 30 30 30 30 31 31 31 32 33 32 33 35 36 36 35 35 35 35 37 37 38 37 37 37 38 39 40 41 41 42 42 43 44 46 47 46 45 43 41 39 37 35 33 32 33 35 35 35 33 32 32 33 33 33 34 34 35 36
28 29 29 30 30 30 30 30 31 32 33 33 33 34 33 34 36 37 37 37 36 36 36 37 38 38 38 38 38 39 40 41 42 43 43 44 44 45 47 48 47 45 43 41 39 37 34 32 31 32 35 35 34 32 32 32 32 32 32 33 33 33 33
28 29 29 30 30 30 30 30 32 33 34 34 34 34 35 35 37 37 37 38 38 37 38 39 39 39 39 39 40 40 42 43 44 44 44 45 45 46 48 49 48 45 42 40 38 36 34 32 31 32 35 36 34 32 32 32 31 30 30 30 31 31 32
28 28 29 30 30 30 30 31 33 34 35 35 35 35 36 36 37 38 38 39 39 38 39 40 40 40 40 40 41 42 43 44 45 45 45 46 46 47 49 50 48 45 42 39 38 36 34 33 32 33 35 36 36 34 32 32 31 28 27 27 27 29 30
28 28 29 29 30 29 30 32 34 35 35 35 36 36 37 37 38 39 39 40 40 39 40 41 41 41 41 41 42 43 44 45 46 47 47 47 47 48 50 50 48 45 41 39 38 36 34 33 34 35 36 37 37 35 33 33 31 29 27 27 26 27 29
29 28 29 29 30 30 31 33 34 35 35 36 37 37 37 38 39 40 41 41 40 40 41 41 42 42 42 42 43 44 45 47 48 48 48 48 48 49 50 50 48 45 41 38 38 37 36 35 35 36 37 38 38 36 34 33 31 30 28 27 27 28 29
29 29 30 30 31 31 32 34 35 35 35 36 37 37 38 39 40 41 41 41 41 41 42 43 43 43 43 43 44 45 47 48 49 49 49 49 49 49 50 50 48 45 41 38 38 38 37 36 36 37 38 39 39 37 36 34 32 30 28 27 28 30 30
29 30 30 31 32 32 33 34 35 35 35 36 36 37 38 39 40 42 42 42 42 43 43 44 45 45 45 45 45 46 48 49 50 50 49 48 48 49 49 49 48 45 41 38 37 38 37 36 35 36 37 38 38 37 36 35 33 31 29 27 29 31 31
30 31 32 33 33 34 34 35 35 35 36 36 36 37 38 39 41 42 43 43 43 44 44 45 46 46 46 46 46 47 49 50 50 50 49 48 48 48 48 48 47 45 41 38 37 38 38 36 35 35 36 37 38 36 35 35 34 33 31 30 29 30 30
31 32 33 34 34 35 35 36 36 36 36 35 36 37 38 40 41 43 44 44 45 45 45 47 47 48 47 47 47 48 49 50 50 50 48 47 47 47 47 47 46 44 41 39 38 38 38 37 34 34 35 37 37 36 35 34 34 33 33 32 31 29 28
32 33 33 34 35 35 36 37 37 36 36 36 37 38 39 40 42 44 45 46 46 46 47 48 48 48 47 47 48 48 49 50 50 49 48 47 47 47 46 46 45 42 40 39 39 38 38 36 34 33 34 36 36 36 35 34 33 33 32 33 33 30 27
33 34 34 34 35 36 37 37 37 36 36 37 38 39 40 41 43 44 46 47 47 47 48 48 48 47 47 47 48 49 50 50 49 48 48 47 47 46 45 45 44 41 39 39 39 38 36 35 33 32 34 35 35 35 35 34 33 32 32 32 33 31 28
33 34 34 34 35 36 36 37 37 37 37 38 39 40 41 43 44 45 46 47 48 48 48 47 47 47 47 47 48 49 50 50 49 49 48 48 46 45 44 43 42 41 40 40 39 37 34 33 32 32 33 34 34 34 34 34 33 32 32 31 31 30 28
33 34 34 34 35 36 36 37 37 37 38 39 40 41 43 44 45 46 47 48 48 48 47 47 47 47 47 48 49 50 51 50 50 49 49 47 46 44 43 42 41 40 40 40 38 35 33 31 30 30 31 32 33 32 33 33 33 32 32 31 31 29 27
33 34 34 34 35 36 36 37 37 38 39 40 41 43 44 45 46 46 48 48 48 47 47 47 47 47 48 49 50 51 51 50 49 49 48 46 45 43 41 40 40 40 40 38 36 33 31 30 29 29 29 30 31 31 32 33 32 32 32 31 30 29 26
33 34 34 35 35 36 36 37 38 39 41 42 43 44 46 46 46 47 48 48 47 46 46 47 47 48 49 50 51 51 51 49 48 47 46 45 43 41 39 39 39 40 39 37 34 31 29 29 28 27 28 29 29 29 30 32 32 31 31 31 30 29 27
34 34 34 34 35 36 36 38 39 40 41 42 44 45 46 47 47 47 48 47 46 46 46 47 48 49 50 50 51 50 49 48 47 46 45 44 42 39 38 39 39 39 37 34 32 29 28 27 27 27 27 28 28 28 29 30 30 30 31 30 29 29 28
34 33 33 34 34 35 37 38 39 41 42 43 44 46 47 48 48 47 47 47 47 47 47 48 48 49 50 50 49 49 48 47 46 45 43 42 40 39 39 38 38 37 34 32 30 28 27 27 27 27 28 28 28 27 27 29 29 29 30 30 29 29 27
33 33 33 33 34 35 37 38 40 41 42 44 45 47 48 48 48 47 48 47 47 47 48 48 48 49 49 48 48 47 46 45 44 43 42 40 39 39 39 38 37 35 32 30 29 27 26 27 27 28 28 28 27 27 26 27 27 27 29 30 30 29 27
33 33 34 34 35 36 37 39 41 42 43 45 46 47 47 48 48 48 48 47 47 47 48 48 48 48 48 47 46 45 44 43 43 43 42 39 38 39 38 36 35 34 31 29 28 26 26 27 27 27 27 27 27 27 26 26 26 26 28 29 30 29 26
35 35 36 36 36 37 39 40 42 43 44 45 45 46 47 48 48 49 48 47 47 48 47 47 47 47 46 45 44 43 43 43 43 43 41 38 37 38 37 35 34 33 30 28 27 26 25 26 26 25 25 26 26 27 26 25 25 25 27 27 28 28 27
36 36 37 37 37 39 40 42 43 44 44 45 45 46 47 48 49 49 48 47 47 47 47 46 46 46 45 44 43 43 44 44 44 43 41 38 36 36 35 34 33 32 30 27 26 25 25 25 25 25 24 25 26 26 27 25 24 24 26 26 27 28 27
36 36 37 38 39 40 41 42 42 43 44 45 46 47 48 49 49 49 47 46 46 46 46 46 46 46 45 44 44 45 45 45 44 42 39 36 34 34 33 33 32 30 28 26 25 25 25 25 26 25 25 25 25 26 27 26 24 23 24 25 25 26 27
37 37 38 39 40 40 41 42 42 44 45 46 46 47 48 48 47 46 45 45 45 45 45 46 46 45 44 44 44 44 44 43 42 39 37 34 32 32 32 31 30 28 26 24 24 24 25 26 26 26 25 25 25 25 26 26 25 23 22 23 23 24 25
37 38 38 39 40 41 41 42 43 45 46 47 47 48 48 46 45 44 44 44 44 45 45 45 44 43 43 43 43 43 43 41 39 37 34 32 31 30 30 29 28 26 24 24 24 24 24 25 26 26 25 25 25 25 25 25 24 22 21 20 21 22 23
38 38 39 40 41 42 42 43 45 46 47 47 48 48 47 46 44 44 44 44 44 45 45 43 42 42 42 42 43 42 41 39 37 35 33 31 31 31 29 28 27 25 23 24 24 23 24 25 26 26 25 25 24 24 24 24 23 23 21 19 19 20 21
38 39 40 41 42 43 43 44 46 47 47 47 47 47 47 46 45 44 44 44 44 44 43 42 41 41 42 42 42 40 38 36 35 35 33 33 32 31 30 28 26 24 23 24 24 24 24 25 26 26 26 25 25 25 24 24 23 23 22 21 19 19 20
40 41 41 42 43 44 44 45 45 46 46 46 46 46 46 46 45 44 44 44 44 43 41 41 41 41 42 42 40 39 37 36 35 35 34 33 32 31 30 28 25 22 22 23 24 24 23 24 26 26 26 26 26 25 25 24 24 23 23 22 21 20 20
43 43 43 44 45 46 45 45 45 46 46 46 46 46 46 45 44 44 43 43 42 41 40 40 41 41 41 40 39 39 38 36 35 35 34 32 31 31 30 29 25 22 21 22 23 23 23 23 24 25 26 26 26 26 26 25 24 24 24 23 22 21 20
44 45 45 46 47 47 46 46 46 47 47 47 47 46 45 44 43 42 42 42 41 40 40 40 41 41 40 39 39 38 37 35 34 34 33 32 30 30 30 29 26 22 21 22 22 22 22 23 23 24 24 25 25 26 27 26 25 25 24 24 23 22 21
46 47 47 48 48 48 47 47 48 49 49 48 47 45 44 43 42 42 41 40 39 39 40 40 40 40 39 38 38 37 37 35 34 33 32 31 29 29 29 28 25 22 22 23 22 22 22 23 24 25 24 24 24 25 26 26 26 25 24 23 23 23 22

ECMWFFLT1_500_spd_015.txt.gz
Wind_Speed
22 24 25 24 25 25 21 20 22 24 25 26 25 25 24 25 25 25 24 24 25 25 26 26 27 28 28 29 29 29 30 31 32 32 31 31 32 33 33 33 33 33 33 34 35 36 38 39 41 41 42 42 43 44 45 46 45 44 42 41 41 41 40
22 24 25 25 27 27 23 22 24 26 28 29 28 27 26 26 26 26 26 25 26 26 27 27 28 29 29 30 30 30 31 32 33 33 33 32 33 34 34 34 34 34 34 35 36 37 39 40 42 42 42 43 43 43 44 45 45 44 42 40 40 41 40
21 23 23 25 27 28 25 23 24 27 29 31 30 29 28 28 28 28 27 27 27 27 28 28 29 29 30 31 31 31 31 33 34 34 34 34 34 35 35 36 35 35 36 36 37 38 40 41 43 43 43 44 44 44 44 45 46 45 43 41 40 40 40
20 22 22 23 25 28 26 22 23 27 30 31 31 30 30 30 30 29 28 28 28 28 29 29 30 30 31 32 32 32 32 33 34 35 35 35 35 36 37 37 37 36 37 37 38 39 41 42 43 44 44 45 45 44 45 45 46 46 44 42 40 40 41
21 22 23 22 22 26 25 20 22 27 29 29 30 30 31 31 30 30 29 29 29 29 30 30 31 31 32 33 33 32 33 34 35 35 36 36 37 37 37 38 37 37 38 39 40 40 42 43 45 45 46 46 46 46 46 46 46 46 45 42 41 41 41
22 22 23 22 22 24 22 18 20 24 26 27 27 28 30 31 30 30 30 31 31 31 31 31 31 32 33 33 34 33 33 34 35 36 36 37 38 38 38 38 38 38 39 39 40 42 43 45 46 47 47 48 48 47 48 47 47 47 45 42 40 41 41
21 21 22 23 22 24 21 17 20 24 25 26 26 28 31 31 30 31 32 32 32 32 32 32 32 33 34 34 34 34 34 34 35 36 37 38 38 38 38 39 39 39 40 40 41 42 44 46 47 48 48 49 48 48 49 49 49 48 45 42 41 41 40
20 20 22 23 23 25 22 19 21 25 26 27 27 28 31 32 32 32 33 33 33 34 34 33 33 34 35 35 35 34 34 35 36 37 38 38 39 39 39 39 39 40 41 41 42 43 45 47 48 49 49 49 49 49 49 50 49 48 45 43 41 40 39
20 21 23 24 24 25 23 20 23 26 27 28 28 29 31 32 33 33 34 34 34 35 36 35 34 34 35 36 36 35 35 35 36 38 38 39 39 40 40 40 41 41 41 42 43 45 46 48 49 50 49 49 49 50 50 50 49 47 45 43 41 40 39
22 21 23 24 24 26 25 23 24 26 27 28 28 30 31 32 33 34 35 36 36 36 37 37 37 36 36 37 36 36 35 36 37 39 39 40 40 41 41 42 43 43 43 44 44 46 47 48 49 50 50 49 50 50 50 49 47 46 45 43 42 40 38
24 23 24 25 25 26 26 25 26 27 27 29 29 30 31 32 33 34 34 36 37 38 39 39 39 38 38 38 37 36 37 37 38 39 40 41 41 42 43 43 44 45 46 45 46 47 48 49 49 50 51 50 50 51 49 47 46 45 44 43 41 39 38
25 24 25 26 26 27 27 26 27 28 29 29 30 31 32 32 33 34 34 34 37 41 43 42 40 39 40 39 38 37 37 38 39 40 41 42 42 43 44 45 46 46 47 47 47 48 48 49 49 51 51 51 51 50 47 46 46 45 42 41 39 38 37
25 25 25 26 27 27 28 28 27 28 30 30 30 31 32 33 33 33 34 34 37 41 43 42 40 41 41 40 39 39 38 39 40 41 42 43 43 44 45 45 46 46 46 47 48 48 49 50 50 51 52 51 51 49 46 44 44 43 41 39 37 36 36
25 26 26 27 27 28 28 29 28 29 30 31 31 31 32 33 33 33 34 35 38 41 41 41 42 43 42 41 41 40 39 40 41 42 43 44 45 45 46 46 46 46 46 47 47 48 49 50 51 52 52 51 50 48 46 43 42 42 40 37 36 35 34
27 27 27 28 28 29 30 30 29 30 31 32 32 32 32 34 34 35 35 35 37 40 41 43 44 43 42 41 41 40 40 41 43 44 45 45 46 46 46 46 46 46 46 47 48 48 49 50 51 51 51 50 49 47 44 42 41 40 38 36 34 33 33
28 28 29 29 30 30 31 31 31 31 32 33 33 33 34 35 34 34 34 35 37 41 43 43 43 43 42 41 40 40 41 43 44 45 46 46 46 47 46 46 45 46 46 47 48 49 49 50 50 51 50 49 48 46 43 40 39 38 37 35 34 32 31
29 30 30 31 31 31 32 33 33 33 33 34 34 34 35 35 34 34 35 38 40 42 42 43 42 42 41 40 40 41 42 43 45 45 46 47 47 47 46 46 46 46 46 47 48 49 49 49 50 50 49 48 46 44 41 38 37 36 35 34 32 31 29
30 31 31 32 32 32 33 34 34 33 34 35 35 35 36 35 35 35 37 40 42 41 41 42 42 42 41 41 41 41 42 44 45 46 46 47 48 47 47 47 47 46 47 47 48 48 48 49 49 48 47 46 44 42 39 37 35 34 33 31 30 29 28
30 31 32 32 32 32 33 33 34 33 34 35 35 35 36 35 36 37 38 40 41 41 41 42 42 41 41 41 41 42 43 44 45 46 47 48 48 48 48 48 47 46 47 47 47 48 48 48 48 47 46 44 42 39 37 35 34 33 32 30 29 28 28
30 31 31 31 32 32 32 33 33 33 33 33 33 34 35 35 36 37 39 40 40 40 41 42 41 42 42 41 41 42 44 45 46 47 48 48 48 48 48 47 46 46 47 47 47 47 47 48 47 46 44 42 39 37 36 34 33 32 30 29 28 27 27
29 29 30 30 31 31 31 32 32 32 32 32 33 34 35 35 36 38 39 39 39 39 41 42 42 43 42 41 42 43 45 47 47 48 48 48 47 47 47 46 45 46 46 47 47 47 47 47 46 44 41 39 37 36 35 34 33 30 29 28 27 27 26
27 28 28 28 29 29 29 30 30 30 30 31 32 33 34 35 37 38 38 38 38 39 41 42 43 43 43 42 43 45 46 48 48 48 47 47 47 46 45 44 44 45 46 46 46 46 46 45 43 42 39 37 36 36 35 34 32 29 28 27 26 26 26
27 27 27 27 27 28 28 28 29 29 30 31 32 33 34 35 37 37 37 37 38 40 42 43 43 43 43 43 44 46 47 49 49 48 47 46 46 45 43 43 44 44 45 45 45 45 45 43 41 40 37 35 35 35 34 33 31 28 27 26 25 25 25
27 27 27 27 27 28 28 29 29 30 31 32 33 34 35 35 36 36 37 38 39 41 41 42 44 44 44 45 45 46 48 49 49 48 47 45 45 44 43 43 43 43 44 44 44 44 42 40 39 38 35 34 35 34 32 31 29 26 25 25 24 25 25
29 28 28 28 29 29 30 30 30 31 31 32 34 34 35 35 36 37 38 39 40 41 42 43 44 45 46 46 46 46 47 48 49 48 47 45 44 44 43 42 42 43 43 42 43 42 39 38 37 36 33 33 33 32 30 29 28 26 25 25 24 24 24
31 30 30 31 31 31 31 31 32 32 33 34 34 35 35 36 37 38 38 39 40 41 43 45 45 46 46 46 46 46 46 47 48 49 47 45 44 44 43 42 42 42 41 41 42 41 39 38 37 34 32 31 32 31 29 28 28 28 26 25 24 24 24
32 32 32 33 33 33 33 34 34 34 35 36 36 36 36 37 38 39 40 41 42 42 44 45 46 45 46 46 46 46 46 47 48 49 47 45 43 43 43 42 42 41 41 41 40 40 39 37 35 33 31 30 30 30 29 27 28 29 27 25 24 24 23
34 34 34 34 35 35 35 35 36 37 37 37 37 37 38 39 40 41 42 43 43 44 44 45 45 45 45 46 47 47 47 47 48 48 47 45 43 42 42 42 41 41 41 39 38 38 39 37 34 32 30 30 29 29 29 28 28 29 27 25 24 23 23
34 34 35 35 35 35 36 37 38 38 38 38 38 39 39 40 41 42 43 43 43 44 44 44 44 45 46 46 46 46 46 47 47 48 47 44 42 42 41 41 41 40 40 38 37 38 38 37 34 31 30 30 29 29 29 28 27 27 27 24 23 23 23
35 35 36 34 32 33 36 38 39 39 39 39 39 40 40 41 42 42 42 43 43 43 43 44 44 45 46 46 45 45 44 45 46 46 45 44 42 41 40 40 40 40 39 38 36 36 38 38 34 31 30 30 29 28 29 28 27 27 27 25 23 23 24
35 36 37 36 33 34 38 39 39 39 39 40 40 40 40 41 41 42 42 42 42 42 43 44 45 45 46 46 45 43 44 45 46 45 44 43 42 40 39 40 40 39 40 37 34 36 40 39 36 32 31 31 30 29 28 28 27 27 27 25 23 23 24
36 36 37 36 36 37 39 39 39 40 40 41 40 39 40 40 41 42 43 43 43 43 44 45 46 45 46 46 45 44 45 46 45 43 43 43 41 38 38 39 39 39 39 35 34 37 39 38 35 33 32 32 31 29 27 27 26 26 26 25 24 24 23
37 37 37 37 37 38 39 39 40 41 41 41 39 38 40 41 42 44 45 45 44 46 46 46 46 46 46 46 46 46 46 44 43 42 43 42 39 37 38 39 38 39 37 33 33 37 39 37 35 33 31 31 31 29 28 26 25 26 26 26 25 24 23
37 37 37 37 37 38 39 39 39 40 40 40 39 40 42 44 46 47 47 46 46 48 49 48 47 47 47 47 46 46 45 44 43 43 42 41 39 38 39 39 38 39 37 34 34 37 39 39 36 32 31 31 30 28 28 27 26 26 25 25 25 25 24
36 36 37 37 39 39 39 39 39 40 40 39 40 43 46 47 49 49 48 48 49 50 50 50 48 47 47 48 47 46 45 45 44 42 41 40 40 39 40 40 39 38 37 35 36 37 38 38 35 32 31 31 28 26 28 27 26 25 25 25 26 26 25
35 36 37 39 41 40 40 41 41 41 41 42 45 48 49 50 50 49 49 52 52 52 51 51 50 48 47 47 46 46 46 45 43 41 41 41 40 39 41 41 40 37 36 35 36 36 36 36 34 31 31 31 28 26 27 27 25 25 26 26 26 26 25
36 37 39 41 42 42 42 43 43 42 44 47 50 51 50 50 50 51 53 54 54 53 52 51 50 49 47 47 46 45 45 43 41 41 42 41 40 40 40 40 40 38 36 35 36 35 35 35 34 31 31 32 30 28 27 26 25 25 27 28 28 26 24
38 39 41 43 43 44 45 45 44 44 47 50 51 51 51 52 53 54 55 55 53 52 52 51 50 49 47 46 45 45 44 43 41 41 42 42 40 39 39 40 41 39 37 36 35 35 35 36 34 32 31 32 31 29 28 27 26 26 27 28 27 25 24

ECMWFFLT1_500_spd_021.txt.gz
Wind_Speed
16 18 19 18 17 19 19 18 17 18 19 19 20 21 21 21 22 24 25 25 24 24 24 25 26 25 25 24 23 22 22 22 22 23 24 25 26 27 28 29 30 30 30 30 30 30 31 32 33 34 34 35 36 36 36 36 37 38 39 40 41 42 43
20 23 22 20 18 18 19 18 17 18 19 18 19 20 19 20 22 23 24 24 23 24 24 24 24 25 24 23 23 23 23 23 23 24 25 26 27 28 29 30 31 31 31 31 31 31 32 32 33 34 35 35 36 36 37 37 38 39 40 41 42 42 44
26 25 24 22 20 18 19 19 18 18 18 19 20 19 19 20 22 23 23 22 22 23 23 23 24 25 25 24 24 24 24 23 23 24 25 26 27 29 30 31 31 31 31 31 31 31 32 33 34 35 35 36 37 37 37 38 39 40 41 42 43 43 44
28 26 25 24 22 19 18 18 18 19 20 20 20 19 19 20 22 22 22 21 21 23 23 23 25 26 27 26 25 25 25 24 24 25 25 26 28 29 30 31 31 31 31 31 31 31 32 33 34 35 35 36 37 38 38 39 39 40 41 42 43 44 45
24 23 24 25 23 21 19 18 17 20 22 21 19 19 20 21 21 22 21 21 21 23 24 23 25 27 28 27 26 25 25 25 25 25 25 26 28 29 30 31 31 30 30 30 31 32 32 33 34 34 35 37 38 39 39 40 40 40 41 43 44 45 46
25 26 25 24 25 24 21 19 18 20 22 20 19 20 20 20 21 21 21 21 21 23 24 25 26 27 28 27 26 25 26 26 25 24 25 27 28 29 30 31 31 30 30 30 31 32 33 34 34 35 36 38 39 40 40 41 41 41 42 43 44 45 46
32 31 26 23 24 23 20 17 17 18 20 19 19 20 21 21 20 21 22 22 22 23 25 26 27 28 28 27 26 25 26 27 26 25 27 28 29 30 32 32 31 31 30 30 31 32 33 34 35 36 38 39 40 40 40 41 41 41 42 43 44 45 46
32 31 28 25 23 21 19 17 16 18 19 19 20 20 21 21 22 22 22 23 24 24 25 26 27 29 29 27 26 25 26 26 27 28 29 30 31 32 32 32 32 32 30 30 31 31 32 34 35 37 38 39 40 40 40 40 41 42 42 43 44 45 45
31 30 29 26 22 20 19 17 17 19 20 21 21 21 22 23 24 25 23 24 25 25 26 27 27 29 28 28 27 26 26 26 27 29 30 31 33 34 33 32 32 32 31 30 31 31 32 33 35 36 38 39 40 41 42 41 41 42 43 43 44 45 45
31 30 29 27 23 20 19 17 18 20 21 23 22 22 24 25 26 27 26 26 26 26 27 26 26 28 29 29 27 26 26 26 27 30 31 33 34 34 33 33 32 31 31 31 31 32 33 34 36 38 40 41 40 40 41 41 42 42 43 43 43 44 45
30 29 29 29 26 21 19 18 19 21 23 24 24 25 26 26 28 29 28 27 27 27 27 26 26 27 28 29 28 27 28 27 28 30 32 33 35 35 34 33 32 32 33 33 33 34 35 36 38 40 41 41 41 41 42 42 42 43 43 43 43 44 44
27 28 28 28 26 22 20 20 21 22 24 25 26 27 27 28 29 30 29 28 26 26 26 26 26 26 27 28 28 28 29 28 29 31 33 34 35 35 34 33 33 33 34 34 35 36 37 38 40 41 42 43 43 44 44 43 43 43 43 43 43 44 44
26 25 25 27 27 25 21 21 22 23 24 25 26 27 27 28 28 29 30 29 27 26 26 26 26 26 28 29 27 27 28 29 31 33 34 35 35 35 34 34 34 34 34 34 36 37 38 39 41 43 43 44 44 44 44 43 43 42 42 42 43 43 43
25 21 21 24 27 28 24 22 23 24 25 25 26 26 27 28 28 28 30 31 29 26 26 26 26 27 28 28 25 24 26 28 31 33 34 35 35 35 35 35 34 33 34 35 36 38 39 41 42 43 44 44 44 44 43 43 42 42 42 42 42 42 41
24 23 22 23 25 28 27 25 25 25 26 27 27 26 27 28 29 29 30 31 30 28 27 27 26 26 28 26 24 24 26 29 31 33 34 34 35 36 36 35 34 34 35 36 37 39 40 42 43 44 44 44 44 44 43 43 42 42 42 41 41 41 40
28 28 28 27 27 28 29 29 28 27 27 28 28 28 28 29 30 31 30 30 30 30 29 27 25 26 27 26 24 26 29 30 31 33 34 35 36 36 36 35 35 35 36 36 38 40 42 43 44 44 45 45 45 44 43 43 42 41 41 40 40 40 39
31 33 32 30 29 29 30 32 33 30 27 27 28 29 30 31 31 31 31 30 30 30 30 28 26 26 27 26 26 28 30 31 32 33 34 35 36 36 36 36 36 36 37 38 39 41 43 44 45 45 46 46 45 44 43 42 42 40 39 40 39 39 39
32 35 34 33 32 32 32 33 33 32 28 27 28 28 29 30 29 30 30 30 30 30 29 28 27 27 28 28 28 29 31 32 33 34 35 36 36 37 37 38 38 38 39 40 41 42 44 46 46 46 46 46 45 44 42 42 41 39 39 39 39 38 39
33 34 35 36 36 35 33 32 32 33 30 28 28 27 27 27 27 28 29 29 30 29 28 28 28 28 29 29 29 30 32 33 34 35 36 37 38 38 39 40 40 40 41 42 42 43 45 47 47 46 46 46 45 43 42 42 41 39 38 38 38 37 38
35 36 36 37 37 37 33 31 31 32 31 30 29 28 26 25 26 27 28 28 28 27 26 27 27 28 30 30 30 32 33 34 35 36 37 38 39 40 41 42 42 42 43 44 45 44 45 46 47 47 46 46 46 43 42 42 41 38 38 37 36 36 37
35 36 36 35 36 37 35 31 31 32 32 31 30 29 27 26 27 29 29 28 28 27 27 27 26 28 30 31 31 32 33 35 36 37 38 40 40 41 43 43 44 44 45 46 47 46 45 45 47 48 47 47 46 44 41 40 39 37 37 37 35 34 35
37 37 36 35 37 37 36 33 32 32 32 32 30 29 28 28 30 30 29 28 28 28 28 28 28 29 31 32 33 33 34 36 37 38 39 40 41 43 44 45 46 47 48 48 48 47 45 44 46 48 48 46 45 43 40 39 38 37 37 37 34 32 33
38 38 37 37 38 37 35 33 32 32 33 32 31 30 30 30 31 30 28 29 29 30 29 30 30 31 32 33 34 34 35 36 38 39 40 41 42 43 45 47 49 49 50 50 50 48 46 45 46 47 47 45 44 42 40 38 38 36 36 36 33 31 32
39 39 37 36 36 34 33 33 33 33 33 33 33 32 32 32 32 30 28 29 30 31 31 31 32 33 33 33 33 34 36 37 38 39 40 41 42 44 47 49 50 51 51 51 51 50 47 45 44 44 45 43 43 42 40 37 36 35 35 35 32 30 32
40 38 36 33 32 32 31 32 33 33 33 34 35 34 33 33 32 30 30 31 31 31 32 32 33 33 33 33 34 35 36 37 38 39 40 41 42 45 48 50 51 52 52 52 52 50 47 44 42 42 43 42 42 41 39 36 34 34 35 35 32 32 34
34 32 32 31 31 31 32 33 34 35 34 35 35 35 34 33 32 31 32 32 32 32 32 32 33 33 32 33 34 35 36 37 38 39 38 39 43 48 51 51 51 53 54 52 50 48 47 45 43 42 42 41 40 39 38 36 35 34 36 35 33 34 36
33 29 29 31 32 32 32 35 37 38 38 38 37 36 35 33 32 32 32 33 33 33 33 33 32 32 32 34 35 36 37 38 38 37 35 38 43 48 49 48 49 51 51 50 49 50 50 46 41 40 40 38 37 37 38 38 37 36 37 36 35 36 37
35 32 30 31 32 33 34 37 40 43 43 42 40 38 35 33 33 33 33 34 34 33 33 33 32 33 33 34 35 37 38 38 37 35 34 38 45 48 48 48 49 49 48 48 51 56 56 47 39 37 36 33 33 35 38 39 38 37 37 37 37 37 37
36 35 34 31 32 34 36 39 43 46 48 45 41 38 35 33 33 34 34 34 33 33 33 34 33 34 35 35 37 38 38 38 36 34 35 40 46 50 52 52 52 51 50 50 51 51 50 46 41 37 33 33 36 38 39 38 37 36 37 38 38 38 37
37 37 36 34 34 35 37 40 43 45 47 46 40 35 34 33 33 33 33 33 33 33 34 34 34 34 35 37 38 39 38 37 36 36 38 41 45 49 52 53 53 54 54 53 50 46 44 46 47 43 38 38 43 43 40 38 37 37 38 39 39 38 36
37 37 36 36 37 36 36 39 41 40 40 42 40 35 34 32 31 31 31 31 32 33 33 34 33 33 34 36 37 38 39 39 39 40 42 45 47 49 51 52 53 55 54 53 51 49 46 44 45 45 45 46 46 44 41 39 38 38 39 39 39 38 36
35 35 35 36 37 37 36 38 40 38 34 35 37 33 31 29 29 31 32 32 32 33 33 32 32 33 34 36 38 40 41 42 43 44 46 49 50 50 50 50 52 53 53 54 53 52 49 46 45 50 55 54 48 43 40 39 38 38 38 38 38 37 36
34 35 37 37 37 37 36 37 39 38 33 32 36 34 29 28 29 31 32 33 33 33 32 31 31 33 36 38 39 41 42 44 45 47 50 51 51 50 49 50 51 52 53 54 54 53 53 53 53 56 59 56 48 42 40 39 39 38 36 34 35 35 36
36 36 37 38 38 39 39 39 40 40 37 34 41 39 31 28 30 32 33 33 35 37 37 34 33 34 37 39 41 42 44 46 48 50 51 51 50 50 50 50 51 52 53 54 55 55 55 57 57 58 57 54 48 44 41 39 39 38 35 33 32 34 36
38 37 37 38 38 39 41 41 41 41 39 35 40 43 39 38 40 42 41 38 39 42 41 37 35 37 40 43 44 45 47 49 51 51 51 50 50 51 52 51 52 52 53 53 54 55 56 57 58 57 56 53 48 44 41 39 40 40 38 35 34 35 35
38 39 38 38 38 39 43 44 43 43 41 39 42 47 48 50 52 51 48 43 40 40 39 39 40 43 46 47 48 48 50 52 52 52 52 52 52 52 52 52 52 52 52 53 54 54 54 55 55 55 54 51 47 44 42 41 40 40 39 38 36 35 35
39 40 40 40 40 40 42 44 45 45 44 43 44 46 48 52 53 50 46 42 39 40 42 44 46 48 49 49 50 51 52 53 52 52 53 53 53 52 52 52 52 52 53 53 53 53 53 53 53 53 51 48 44 42 41 41 40 39 38 37 36 35 36
40 41 41 42 42 42 43 44 46 47 46 45 44 45 48 50 48 44 41 41 43 45 47 48 49 49 50 50 51 52 53 53 52 52 52 52 51 51 50 50 51 52 52 52 52 52 53 52 52 51 49 45 42 40 40 41 41 39 38 36 35 35 36

ECMWFFLT1_500_spd_024.txt.gz
Wind_Speed
16 15 15 14 13 13 14 15 16 16 17 18 19 21 22 22 21 21 21 22 21 22 21 21 20 20 19 19 19 19 19 20 22 24 25 26 26 26 26 27 27 29 30 31 32 31 30 29 28 28 28 29 30 31 32 32 33 34 35 36 37 37 38
17 17 17 15 12 11 11 13 14 14 15 17 18 19 21 21 20 20 21 21 20 20 20 20 19 18 18 18 18 19 20 21 22 23 25 26 27 27 27 27 27 28 30 31 31 31 31 30 29 28 29 30 31 32 32 33 34 35 36 37 37 38 38
17 16 16 14 10 8 10 12 13 14 15 16 18 19 19 20 20 21 22 21 21 20 20 20 19 19 19 19 19 19 20 21 22 23 24 25 27 27 27 26 27 28 29 30 30 30 30 30 29 29 29 31 32 32 33 33 35 36 37 37 38 38 38
17 17 16 14 12 13 16 17 15 15 16 17 19 20 19 19 21 22 23 23 22 21 21 20 20 20 20 20 20 20 21 21 22 23 24 25 26 26 26 26 27 27 28 29 29 29 29 29 29 29 30 32 33 33 33 34 36 37 38 38 38 38 39
20 19 19 18 17 19 22 21 18 17 18 19 20 20 20 20 21 22 24 24 23 22 22 22 21 21 22 21 21 22 22 23 23 24 24 25 25 25 25 26 27 27 28 29 29 29 29 29 30 31 31 32 33 33 34 35 37 38 39 39 39 39 39
22 22 23 23 23 24 25 23 21 18 18 20 21 21 20 19 21 22 23 24 23 23 23 23 23 24 25 24 22 23 24 24 24 24 24 25 26 26 26 27 28 28 29 29 29 29 29 30 31 32 33 33 33 34 34 36 37 38 38 39 38 38 38
24 25 26 26 26 26 25 22 21 18 17 18 19 19 19 19 20 22 23 24 23 23 22 23 24 26 27 26 25 25 25 25 25 25 25 25 25 26 27 27 28 29 29 29 29 29 30 31 32 33 33 34 34 35 35 36 36 37 38 38 38 39 39
26 27 27 27 26 24 23 21 20 18 17 17 17 17 18 19 20 22 23 24 24 23 23 24 25 26 28 28 27 27 27 26 26 26 26 25 25 27 28 28 28 29 30 29 29 30 31 32 32 33 34 34 34 35 36 37 37 38 38 39 40 40 40
27 28 28 29 27 24 22 21 20 19 17 16 16 16 18 19 21 22 24 25 25 24 25 26 26 27 28 28 28 28 28 27 27 27 27 25 25 27 29 30 30 30 30 30 30 30 31 32 33 33 34 34 34 35 36 38 39 40 40 40 40 41 40
28 29 31 31 30 26 22 19 18 17 16 15 15 16 17 19 21 22 24 25 26 26 27 27 27 27 27 28 27 28 29 29 28 27 26 25 25 28 30 31 31 31 31 31 31 31 31 32 33 34 34 34 35 36 37 38 39 40 41 41 41 41 41
29 31 32 32 30 27 21 16 15 15 15 15 16 16 18 19 21 22 23 25 26 27 28 28 27 27 27 27 27 28 29 29 28 27 26 25 26 28 30 31 31 31 31 31 31 32 32 33 34 34 34 35 35 37 38 39 39 40 41 42 42 41 41
28 31 31 29 27 26 21 15 14 15 15 16 17 18 19 21 22 22 23 25 26 27 27 27 26 26 27 27 27 28 29 29 28 28 27 26 27 29 31 31 31 31 32 32 33 33 34 34 34 34 35 35 36 38 39 39 40 41 41 42 42 41 41
29 29 29 28 28 26 21 16 14 15 16 18 19 19 21 22 23 23 24 25 26 26 26 26 26 27 28 28 27 27 27 27 27 27 27 27 28 31 32 32 33 33 33 34 34 34 35 35 35 35 35 36 38 39 40 41 41 41 41 41 41 41 41
31 31 29 26 24 23 20 19 19 19 19 20 20 21 22 23 24 25 25 26 26 25 26 26 27 28 29 28 27 26 26 26 27 26 26 27 30 32 32 32 33 34 35 34 34 35 35 35 35 35 36 38 40 41 41 41 42 41 40 40 40 41 41
32 31 26 22 22 24 25 25 25 24 24 24 24 25 25 25 25 25 26 26 26 26 26 28 29 29 28 27 26 25 25 26 26 26 27 28 30 31 31 32 34 35 35 35 35 35 36 35 35 36 38 40 41 42 41 42 42 41 41 41 40 40 39
33 30 27 26 28 32 34 32 29 27 26 27 28 29 29 28 27 26 26 27 27 27 27 29 29 28 27 25 25 25 26 26 27 27 29 29 30 31 32 33 35 35 35 35 36 36 36 36 36 38 40 42 43 42 42 42 42 42 41 40 40 39 39
36 34 32 30 30 31 33 34 32 29 28 28 30 32 32 31 29 28 28 28 28 28 29 29 28 27 25 24 25 26 27 27 28 28 29 30 31 32 33 35 36 36 36 36 37 36 36 36 38 40 42 44 45 45 44 44 43 43 42 40 39 39 39
39 37 34 32 31 32 34 34 34 33 31 31 32 33 33 32 31 30 29 29 29 29 30 29 28 26 26 26 27 28 28 29 29 28 29 30 31 33 34 36 37 37 38 38 38 37 36 37 40 43 44 46 49 49 48 47 45 44 43 40 38 38 39
42 39 36 35 36 39 40 37 34 34 35 34 34 34 34 33 33 32 31 30 30 30 30 31 30 29 27 27 27 27 28 29 29 29 30 31 33 34 35 37 38 39 40 41 40 39 38 40 44 46 48 50 52 52 52 51 48 46 42 39 37 37 38
41 39 38 39 41 44 44 38 34 35 36 35 36 37 37 35 35 34 33 32 31 31 32 32 32 30 28 28 28 29 28 28 29 30 31 33 34 35 36 37 38 39 41 42 41 41 42 44 45 46 46 47 46 46 48 49 49 45 41 38 36 36 37
39 39 41 43 45 46 44 42 41 41 39 38 39 38 37 37 36 35 35 33 32 32 32 33 33 32 30 30 30 30 29 28 29 30 32 33 34 35 37 38 38 39 41 41 41 41 42 43 44 43 43 42 40 42 46 49 48 43 39 37 35 34 35
41 42 44 46 46 45 45 46 46 44 41 41 41 40 39 38 37 37 36 35 34 33 33 34 35 33 32 32 31 30 29 28 29 31 32 33 34 36 37 38 38 39 40 40 40 40 42 45 45 45 46 44 41 43 49 50 45 39 36 35 33 32 34
44 44 46 46 44 43 43 43 42 42 42 43 42 41 41 40 38 38 38 37 36 35 35 36 36 34 31 30 29 28 28 28 29 31 32 33 35 36 38 39 39 39 39 39 40 42 46 48 48 47 47 45 42 43 46 44 39 34 32 31 30 31 33
45 45 45 43 39 38 40 41 41 42 42 43 42 41 42 42 41 41 41 40 38 37 36 36 36 34 31 30 29 28 28 28 29 31 33 34 36 37 39 40 39 38 39 41 43 46 48 49 49 48 47 44 43 43 43 40 34 28 26 27 29 31 33
44 44 44 42 39 39 40 41 41 40 40 40 40 41 44 44 45 47 48 45 40 36 36 36 34 32 31 30 29 29 29 29 30 33 35 36 37 38 40 41 41 39 40 43 44 46 47 48 49 49 46 43 44 46 45 39 32 27 27 28 30 33 35
46 47 48 48 46 44 40 39 38 38 38 38 40 43 44 45 49 53 53 48 41 36 35 36 33 31 31 30 30 29 29 30 32 34 36 37 38 39 40 41 42 41 42 43 44 46 48 48 50 50 47 45 47 49 47 40 35 34 34 33 32 37 38
54 55 55 53 49 43 39 37 37 38 38 39 41 43 42 42 45 48 47 44 40 37 36 35 33 31 32 31 29 29 30 33 35 36 36 37 37 38 40 40 41 41 42 43 44 47 50 51 51 50 49 48 49 49 46 39 38 38 36 33 37 44 43
55 56 55 49 42 37 36 37 38 38 39 40 41 43 42 38 38 40 40 36 32 33 34 34 32 31 31 29 28 30 33 35 36 36 36 37 37 38 40 40 40 41 41 43 46 50 52 53 52 51 50 50 51 51 48 43 42 42 41 43 49 51 46
53 52 49 43 37 35 35 36 37 38 39 40 41 42 42 36 34 36 34 32 30 28 29 30 30 29 27 26 28 32 36 37 37 37 37 37 38 39 39 39 39 41 42 45 49 52 53 53 52 52 52 52 52 52 51 49 47 47 48 52 55 52 47
53 48 42 38 37 36 35 35 36 36 37 39 39 41 41 38 35 32 27 35 35 28 23 24 26 23 21 22 26 30 36 39 38 38 38 38 39 39 38 39 40 43 45 48 51 53 53 53 53 53 54 54 54 53 53 52 52 51 52 52 52 51 48
44 40 38 37 38 37 36 34 34 34 34 35 36 38 40 40 38 33 28 39 38 26 21 21 20 18 22 30 30 30 34 38 38 38 38 38 38 39 40 42 44 46 48 50 52 52 52 52 53 54 54 55 55 55 55 55 54 54 54 53 52 50 47
33 33 34 34 34 34 34 33 32 32 33 34 34 35 38 38 37 35 31 41 41 33 29 26 22 21 30 36 33 31 32 36 38 38 38 37 39 41 44 46 48 49 50 51 51 52 52 53 54 55 55 55 55 56 56 56 56 55 54 52 51 49 45
30 30 30 31 32 32 32 32 33 34 34 34 34 34 35 36 36 34 31 35 39 35 29 27 28 33 40 41 38 36 34 34 37 37 37 40 44 46 48 49 49 50 51 52 52 52 53 54 54 54 54 55 55 56 56 56 55 54 53 51 49 48 45
31 31 32 32 33 33 33 33 33 34 34 34 34 34 34 35 36 35 31 32 37 38 37 39 45 52 54 52 50 43 36 34 35 36 39 44 47 48 49 50 50 51 52 52 53 53 53 53 53 53 54 54 54 54 54 53 53 52 51 50 48 46 44
32 33 33 33 33 34 34 34 33 34 35 35 34 34 34 35 36 37 36 37 40 43 46 50 55 57 57 53 46 39 35 35 37 39 43 45 46 47 49 50 50 51 51 51 52 52 52 52 52 53 53 52 52 51 50 50 50 49 48 47 44 42 40
31 32 32 33 33 33 33 34 34 35 36 37 36 35 36 37 38 39 41 43 43 43 46 51 55 55 51 45 39 37 37 39 42 44 45 44 46 48 49 50 50 50 50 51 51 51 50 51 51 52 51 50 49 48 47 46 46 45 43 41 40 38 37
31 32 32 32 33 33 34 35 35 35 36 38 38 38 38 38 40 42 44 45 44 43 46 51 51 47 43 41 40 41 42 44 47 48 46 46 48 49 50 50 49 49 50 50 50 49 50 50 50 49 48 47 46 44 43 42 42 41 39 37 36 36 36
33 33 34 34 34 35 35 36 37 38 38 39 39 40 41 41 42 43 43 43 41 42 46 49 49 46 46 47 47 47 48 49 50 50 49 49 49 49 50 50 49 49 49 49 48 49 49 48 47 45 45 44 43 41 40 39 39 38 37 35 34 34 34

ECMWFFLT1_500_spd_027.txt.gz
Wind_Speed
9 9 9 10 10 11 12 13 15 16 18 19 19 21 21 21 21 20 21 22 22 21 21 21 21 22 22 22 22 22 21 21 22 22 23 23 23 23 24 24 25 26 26 25 26 26 28 29 29 29 28 27 27 27 26 26 27 28 30 31 32 33 34
7 9 8 8 10 10 9 9 10 13 15 17 19 20 20 19 20 20 20 21 20 20 20 20 21 21 21 20 20 20 21 21 22 22 23 24 24 24 24 24 26 26 25 25 26 27 28 29 29 28 27 27 27 27 27 27 28 30 31 31 32 33 35
10 10 8 9 9 7 7 9 12 15 16 17 19 20 20 19 20 20 20 20 21 21 21 21 21 21 20 20 20 20 20 21 22 23 24 24 25 25 24 25 25 26 26 25 26 27 29 29 28 28 28 28 28 27 27 28 30 31 31 32 33 34 35
11 12 10 12 12 10 11 13 16 17 18 18 19 20 20 20 21 20 20 20 22 22 22 22 22 21 20 20 20 20 21 22 23 23 24 25 25 25 25 25 26 26 26 26 26 27 28 29 29 29 29 29 28 28 29 30 30 31 32 32 33 34 35
13 13 12 14 15 14 15 16 17 18 18 19 19 20 21 21 21 20 20 21 22 23 23 23 23 22 21 21 22 22 22 23 24 24 25 25 26 25 25 26 27 27 27 27 26 27 28 28 29 29 29 29 29 29 30 31 31 31 32 33 34 35 36
16 16 16 17 16 16 17 17 17 17 17 18 18 19 20 20 20 20 20 20 21 22 24 23 23 23 23 23 23 24 24 24 25 25 25 26 26 26 26 27 28 29 29 28 27 28 29 29 29 30 30 30 30 30 31 31 31 32 33 34 35 37 38
18 18 19 18 17 17 18 18 17 17 18 18 18 18 18 18 18 19 20 20 21 22 24 24 24 24 24 25 25 26 26 26 26 26 26 26 26 27 27 28 29 29 29 29 29 30 30 29 30 31 31 31 31 32 31 31 32 33 34 35 36 38 38
19 21 20 18 17 19 19 19 18 18 19 18 18 17 17 17 18 19 19 21 22 23 24 25 25 25 26 26 26 27 29 28 28 27 27 27 27 28 28 29 29 29 29 29 30 31 30 30 30 31 32 32 33 33 32 33 33 34 35 36 37 38 39
21 21 19 17 18 18 18 18 18 18 19 18 16 16 16 17 17 18 19 21 22 23 24 25 27 27 27 26 26 27 30 30 28 28 29 29 28 29 29 29 29 28 28 29 30 31 30 31 31 32 33 33 33 33 33 33 34 35 36 37 38 38 38
24 21 19 18 17 18 18 17 16 16 16 16 14 14 15 16 17 18 20 22 23 25 25 26 27 28 27 27 27 28 30 30 29 30 31 30 29 30 30 30 30 28 28 30 32 32 32 32 32 33 34 33 33 33 33 34 35 36 37 37 38 39 39
23 21 21 19 19 19 19 18 17 16 16 14 13 14 14 15 17 19 21 23 24 26 27 27 27 28 28 28 29 29 29 30 31 31 32 31 30 31 31 30 29 27 27 31 34 33 33 33 33 34 34 34 34 33 33 35 36 36 37 38 38 39 40
20 21 22 21 21 21 20 18 17 15 14 13 13 14 15 16 18 20 22 24 26 27 29 29 28 29 30 29 29 29 30 31 32 33 33 32 31 32 32 30 28 27 29 33 34 34 33 34 34 34 35 35 34 34 35 36 36 36 37 38 39 40 41
20 22 23 22 22 21 19 17 15 13 13 15 16 17 18 19 21 22 23 25 27 29 30 31 30 31 32 31 30 30 31 32 33 34 35 34 33 33 32 29 27 29 32 33 33 33 34 34 35 35 36 36 35 35 35 36 37 39 41 42 42 41 41
21 23 23 23 23 22 20 19 18 18 19 20 21 22 22 23 24 25 27 27 28 30 32 33 33 32 32 33 32 32 32 33 34 35 35 35 34 34 31 30 29 31 34 33 33 34 35 35 35 36 36 37 36 36 37 38 39 40 40 39 38 38 39
22 23 24 25 26 26 25 23 21 20 21 23 24 24 24 25 27 28 29 29 30 31 33 35 35 35 34 34 34 33 33 33 35 36 36 35 35 33 32 31 32 33 34 33 34 35 35 36 36 36 37 37 38 38 38 37 38 38 38 37 37 39 42
24 25 26 27 28 28 27 26 24 22 22 24 25 25 25 26 28 29 30 31 31 33 35 36 37 37 37 36 36 35 35 35 35 36 36 34 34 33 33 33 34 34 33 33 34 35 36 36 36 36 37 37 37 37 38 40 40 40 41 40 39 42 44
26 28 29 29 29 29 28 28 27 26 26 27 28 27 26 26 27 29 31 33 34 36 37 39 39 39 39 38 38 39 37 35 35 36 35 33 33 35 35 34 34 35 34 34 35 35 36 37 38 38 38 36 35 35 39 43 43 42 42 39 36 39 43
29 31 30 30 30 30 30 30 29 29 29 30 31 31 30 29 30 32 35 37 38 39 39 40 41 41 41 42 43 42 39 36 36 35 34 33 34 35 35 34 35 36 36 35 35 37 38 39 39 40 38 35 33 34 38 43 43 42 39 35 34 38 43
30 31 31 32 32 31 30 30 31 31 31 33 35 35 35 34 34 36 39 40 40 41 41 41 41 43 45 46 46 44 39 36 35 34 33 32 34 35 34 33 34 35 36 36 37 38 40 40 41 41 39 36 35 36 39 41 41 40 37 36 39 42 43
31 32 34 34 33 31 31 32 33 33 34 36 37 36 34 33 34 36 38 40 41 42 42 42 44 46 46 45 45 44 40 34 32 33 33 32 34 35 34 32 34 36 37 37 38 40 41 41 42 41 40 39 39 40 40 40 40 40 39 40 43 44 42
32 34 36 35 33 32 34 35 35 35 37 38 36 33 32 32 34 36 39 42 43 43 43 44 46 47 43 39 40 43 41 36 33 34 33 34 35 34 33 33 35 37 37 38 40 41 42 42 42 42 42 42 41 41 42 43 43 43 43 44 44 44 43
35 36 36 34 33 34 37 37 38 38 38 37 36 34 35 38 41 42 43 44 44 43 43 45 47 49 45 39 39 42 44 44 41 37 34 33 33 32 32 34 36 37 38 39 41 42 42 43 43 43 44 43 42 42 45 47 47 46 46 47 47 46 45
40 39 36 34 34 37 40 41 40 39 38 39 38 39 42 47 49 47 45 44 44 43 44 46 50 53 48 40 38 40 43 44 44 39 35 34 33 32 34 36 37 37 39 40 41 42 42 43 43 44 44 43 43 45 47 50 51 50 49 49 50 49 47
43 42 40 39 39 40 42 42 40 40 41 42 43 45 49 53 53 50 47 46 46 45 45 46 49 49 46 41 41 42 42 42 41 37 34 34 34 35 38 38 38 39 40 40 41 42 42 42 42 42 42 43 45 47 49 52 53 54 52 51 51 52 50
41 42 44 44 44 43 43 42 41 43 44 45 46 48 51 53 53 50 48 48 49 47 46 44 42 40 41 46 49 50 50 50 48 42 36 33 34 36 38 39 40 40 40 40 40 41 41 42 42 41 42 43 46 49 51 53 54 54 53 52 52 52 52
39 41 44 46 45 44 43 42 44 45 46 47 48 48 49 49 49 47 47 49 50 48 46 43 41 39 39 42 44 45 45 45 46 42 35 30 30 34 38 40 41 40 39 39 40 40 41 41 42 41 42 45 48 51 53 54 54 54 53 52 52 53 52
42 43 45 46 45 44 45 46 47 48 48 48 48 47 47 46 45 45 47 49 50 49 46 42 40 39 37 37 40 42 40 37 34 30 26 24 27 32 37 41 42 41 39 38 39 40 40 41 42 43 45 48 50 52 53 54 54 53 53 53 52 52 52
46 47 48 48 48 49 49 50 51 51 50 49 48 47 47 46 45 46 48 49 49 49 46 41 38 38 38 39 44 48 44 33 23 19 19 21 26 30 35 39 40 39 37 37 39 40 40 41 44 46 49 51 52 52 53 53 53 52 52 52 52 52 53
50 51 51 51 52 53 52 52 52 52 51 51 49 49 48 47 46 47 48 48 48 47 45 42 40 37 37 38 43 47 39 26 18 16 19 20 24 30 34 37 37 36 36 37 39 40 41 44 47 49 51 52 52 52 52 52 52 51 51 51 52 53 54
53 54 55 55 56 56 54 53 52 51 51 51 51 49 48 47 47 47 46 46 46 45 44 43 42 39 37 36 40 44 37 27 22 24 26 26 30 32 33 34 36 36 37 38 39 40 43 46 48 49 50 51 51 52 52 51 51 51 50 51 53 53 53
54 54 54 54 55 55 54 53 51 48 46 45 44 44 44 45 45 45 44 44 44 44 44 43 42 41 39 34 38 42 37 33 32 32 33 35 37 34 32 35 37 38 38 38 39 42 46 48 48 49 51 52 52 52 52 51 50 51 51 52 53 52 51
52 52 52 53 52 52 51 48 45 41 38 37 38 39 40 41 42 42 42 42 42 42 42 42 41 39 38 34 38 41 35 34 37 38 38 40 39 36 37 38 38 38 38 38 40 45 48 49 50 52 52 52 52 51 50 50 50 51 52 52 51 49 48
61 62 59 53 47 43 40 37 36 35 35 36 37 38 38 39 40 41 41 40 40 41 40 39 38 37 35 32 35 38 37 40 42 44 45 45 44 42 42 39 36 35 36 39 44 48 49 50 52 52 51 50 50 49 49 50 51 51 51 50 48 45 41
56 52 46 40 36 33 33 33 34 36 37 38 38 38 38 38 39 39 39 39 39 39 38 38 38 36 33 31 33 37 42 45 46 45 45 44 42 40 37 35 34 37 41 45 49 50 50 50 50 49 49 49 49 48 49 50 50 51 50 47 44 40 37
33 32 31 32 33 33 34 35 37 38 38 39 39 38 38 37 37 37 37 37 38 39 39 39 39 38 37 37 38 40 44 46 46 43 40 37 35 34 34 37 41 46 48 50 50 49 49 48 47 47 48 48 48 48 49 49 49 48 46 43 40 37 35
28 29 30 32 33 33 34 35 36 37 37 37 38 38 38 37 37 37 37 37 38 39 39 40 41 40 39 38 40 43 46 46 42 39 37 36 36 39 42 46 49 49 48 47 47 46 45 45 45 46 47 47 48 48 48 49 48 45 42 40 37 36 36
29 29 29 30 31 32 33 35 36 37 37 37 38 38 38 38 38 38 38 38 39 39 40 42 43 41 38 37 41 45 47 45 40 38 40 42 45 48 50 50 49 47 46 45 44 44 45 45 45 46 46 47 48 48 48 48 45 42 39 37 37 37 38
28 29 29 30 31 32 33 34 36 37 38 38 38 39 39 39 39 39 40 40 40 41 42 43 41 37 35 37 40 42 43 43 42 44 47 49 51 52 52 51 49 47 45 44 44 45 46 46 45 46 47 47 47 48 47 45 41 39 37 37 37 39 39

ECMWFFLT1_500_spd_030.txt.gz
Wind_Speed
14 13 12 12 12 13 13 14 14 14 13 13 13 15 17 18 19 19 19 19 19 19 19 18 18 19 19 19 20 20 21 21 21 21 21 21 22 22 22 23 25 26 27 27 26 25 25 25 25 24 24 24 24 24 24 24 24 24 23 24 25 27 28
17 18 17 14 11 10 10 11 12 12 12 12 12 14 15 17 18 19 19 19 19 19 18 18 18 20 20 20 20 20 21 21 21 20 21 21 22 22 23 24 26 27 28 27 26 26 26 26 25 24 25 25 25 25 25 25 25 24 24 25 26 28 29
19 21 19 16 12 10 10 11 11 11 12 13 13 14 15 15 16 18 18 19 19 19 18 19 20 21 22 21 20 21 22 22 21 21 22 22 22 23 24 25 26 28 28 27 26 26 27 26 26 25 25 26 26 26 25 25 25 26 26 26 27 29 30
19 20 19 17 14 12 13 14 14 14 14 14 14 15 15 14 14 16 17 18 19 19 19 20 21 21 22 22 22 22 23 23 23 23 23 24 24 25 25 26 27 27 28 27 26 26 27 28 27 26 26 26 27 26 26 25 26 26 26 27 28 29 31
16 18 19 17 14 13 15 16 16 16 15 16 16 16 15 13 12 12 14 17 18 19 20 21 21 22 22 23 24 25 25 25 24 24 25 25 25 26 27 27 26 27 28 28 27 27 28 29 29 28 27 27 27 27 26 26 26 27 27 27 29 31 32
14 15 17 15 13 15 16 17 17 17 17 17 17 17 16 14 11 11 12 14 16 18 19 20 21 22 24 25 25 26 27 27 26 26 27 27 27 27 28 28 27 27 27 28 28 28 29 30 29 28 27 27 27 27 27 27 27 27 27 28 30 32 34
14 15 16 15 15 17 18 18 17 17 18 18 18 18 17 15 13 12 12 13 14 16 17 19 21 23 25 26 27 27 27 28 28 29 29 29 28 29 29 28 28 28 27 28 29 29 30 30 29 28 27 28 28 28 28 28 28 28 27 28 30 33 35
16 17 17 16 17 18 18 17 16 16 17 17 17 17 16 14 13 12 12 13 14 15 16 19 21 23 25 28 28 28 29 30 30 30 30 30 30 31 30 30 30 29 28 28 30 30 30 30 29 28 28 29 29 29 30 30 30 29 28 29 31 33 35
16 17 17 18 19 19 18 17 16 16 16 15 14 14 14 12 12 12 12 14 15 16 18 20 22 24 26 27 29 30 31 31 31 31 31 31 32 33 32 31 32 30 28 29 31 31 31 30 29 28 29 30 29 30 31 31 31 30 29 31 33 34 36
17 17 17 19 19 19 18 17 16 16 14 13 12 11 11 11 11 12 14 15 16 18 20 22 23 25 26 27 29 30 31 32 32 32 32 32 33 35 35 34 33 31 29 30 31 31 31 30 29 30 30 29 29 30 31 32 31 30 30 31 33 34 36
20 18 18 19 20 20 19 17 15 13 10 8 7 7 8 10 12 13 15 17 19 21 23 24 26 27 28 29 30 31 32 33 32 32 33 34 34 36 37 36 35 32 30 30 31 31 31 29 29 30 30 29 30 31 32 32 31 29 30 31 31 32 35
20 18 18 19 19 20 18 15 13 10 8 6 6 7 9 12 14 16 17 19 21 23 25 26 28 30 30 31 32 33 34 35 34 33 34 35 35 36 37 37 36 33 30 29 30 31 30 30 31 31 30 31 31 32 33 33 31 30 30 30 30 32 35
17 16 17 18 18 17 15 12 11 11 10 10 10 11 12 14 16 18 20 21 23 25 26 28 29 31 31 33 35 35 36 38 40 37 35 34 35 36 36 36 36 32 29 30 30 30 32 33 31 30 31 32 33 33 34 33 32 31 30 30 30 32 35
17 16 17 18 16 14 13 12 13 13 13 13 12 12 13 15 17 19 21 23 25 26 28 29 30 31 32 35 39 41 42 44 43 39 35 35 35 35 34 35 34 32 30 31 31 32 33 33 31 30 32 33 34 34 34 34 33 32 32 32 32 33 35
18 17 17 16 15 14 14 15 16 16 16 15 14 13 14 15 17 19 21 23 25 27 28 29 30 32 36 40 44 46 47 45 41 37 36 37 36 35 34 33 33 32 32 31 32 33 33 32 31 32 34 35 35 35 34 34 33 33 34 35 35 36 37
18 18 17 16 16 17 16 17 18 18 19 19 17 15 15 17 18 20 22 24 26 27 29 31 33 36 40 44 47 47 46 44 41 38 37 37 38 39 38 36 35 35 33 32 32 33 32 32 31 32 35 36 36 36 35 34 33 33 34 35 37 38 39
20 20 18 18 19 19 19 19 19 19 20 21 21 18 18 19 21 22 24 24 25 26 28 31 34 38 42 44 44 43 44 45 44 40 39 40 41 43 42 39 37 36 33 31 32 32 31 31 31 33 36 37 37 37 37 36 35 34 35 36 38 39 39
22 21 19 20 22 22 21 21 20 21 22 24 24 23 22 22 24 25 25 23 22 23 26 30 35 39 41 43 43 42 44 45 43 41 43 42 41 42 42 40 38 35 32 31 32 32 31 31 32 35 37 37 38 39 38 37 36 35 36 37 37 37 39
25 22 21 23 25 25 24 23 22 23 25 27 28 27 26 26 27 27 26 24 23 25 30 35 39 41 42 44 44 44 45 44 42 42 42 40 39 40 41 40 38 34 32 31 32 31 30 31 35 37 37 37 39 39 38 37 37 36 36 36 35 37 40
27 25 25 27 28 28 27 26 25 26 28 31 32 32 30 29 29 29 28 27 29 32 36 40 41 41 43 44 43 44 45 42 40 40 40 41 43 42 41 42 42 42 39 36 33 30 30 34 37 38 38 38 39 39 39 37 37 35 35 35 35 38 43
28 28 29 30 30 30 29 28 29 31 33 35 35 35 35 34 33 32 31 32 34 37 39 40 41 42 44 43 41 43 45 41 39 40 42 44 46 47 48 48 46 45 40 34 30 31 34 37 39 40 40 39 39 40 39 37 36 35 34 35 38 42 45
28 28 28 30 31 32 31 31 33 35 36 37 38 38 39 39 39 38 37 37 38 39 40 42 42 43 45 44 42 42 43 43 43 45 47 47 47 48 48 45 39 33 29 28 30 33 36 39 40 41 41 39 41 41 39 37 36 35 35 38 42 45 47
30 29 30 31 33 33 34 35 35 36 37 38 38 40 41 41 41 42 42 41 41 42 44 45 45 46 46 46 44 42 43 45 44 46 48 48 46 45 42 39 36 32 31 34 35 35 36 39 42 42 41 40 41 41 38 36 36 36 39 42 46 48 49
32 31 32 33 33 33 34 35 36 38 38 38 39 41 41 41 41 43 44 45 45 47 48 48 48 49 48 48 47 45 44 44 43 43 44 42 43 44 41 38 37 37 36 36 35 34 36 39 41 43 42 42 41 39 36 35 36 39 42 45 47 48 49
33 32 32 32 32 34 36 36 37 38 39 40 41 41 41 41 43 45 47 48 50 50 51 52 52 51 51 49 49 48 46 44 42 41 39 38 42 44 41 37 35 34 33 32 31 32 35 36 38 41 42 42 40 37 35 35 37 41 44 46 48 49 50
32 32 32 34 36 39 40 39 38 38 39 41 42 42 43 44 45 47 49 50 52 52 53 54 54 54 53 51 49 48 46 44 42 40 38 38 40 41 40 37 32 29 27 27 28 29 30 32 36 39 40 39 37 35 35 35 38 43 46 46 48 50 51
31 33 36 39 42 44 44 43 42 42 43 44 43 44 45 46 47 49 51 52 53 54 54 54 55 54 52 50 48 47 45 43 42 40 39 38 39 41 42 37 30 26 26 27 28 29 30 33 37 39 38 37 35 34 35 37 40 45 47 48 49 50 49
34 36 38 41 43 45 46 47 47 46 46 46 46 47 49 50 50 52 53 53 53 53 53 53 53 51 49 47 46 45 44 44 42 41 41 39 38 38 38 35 30 28 29 31 31 33 35 39 41 40 37 34 33 34 36 39 43 46 48 49 50 50 49
39 39 40 42 45 47 49 49 48 47 47 48 50 51 53 53 54 55 54 54 53 52 52 51 49 47 46 45 44 44 44 44 42 41 40 38 35 36 39 39 36 33 34 35 36 38 41 44 43 40 36 34 34 36 38 42 46 49 50 50 50 49 49
44 45 47 49 51 52 51 50 49 50 50 51 53 54 55 56 56 56 56 55 53 51 48 45 43 43 43 42 43 43 43 43 42 41 39 36 34 34 36 37 36 35 37 40 41 43 45 44 40 37 36 35 36 38 42 46 50 51 50 50 49 49 49
45 47 49 51 51 51 51 51 51 51 52 54 56 57 57 57 56 57 57 55 50 46 43 41 41 41 41 41 42 42 42 42 42 40 37 35 32 30 32 34 36 38 41 44 45 46 45 40 35 33 34 35 38 43 48 51 51 50 49 49 49 49 48
42 45 46 48 50 51 52 52 53 55 58 60 59 57 57 58 60 58 54 49 44 41 40 40 40 40 41 42 42 42 42 42 41 39 36 34 32 32 35 37 39 41 44 45 47 48 44 37 33 33 35 40 45 50 52 51 49 49 49 49 48 47 47
45 47 49 52 54 55 56 56 57 60 63 63 60 58 58 58 54 48 43 41 40 40 40 40 41 41 42 42 42 42 41 40 39 38 37 36 36 36 37 41 43 44 44 46 49 48 42 36 35 38 43 48 51 52 50 48 48 48 48 47 46 46 46
48 50 52 55 56 57 58 59 59 60 61 59 54 50 46 43 39 38 38 39 40 40 41 41 41 41 41 41 41 41 40 40 39 39 39 40 39 38 39 42 45 45 46 48 48 44 39 39 42 47 50 51 50 48 47 46 47 46 46 45 45 46 46
45 47 49 51 54 55 58 59 59 57 54 48 43 38 36 35 37 38 39 39 39 39 39 39 39 40 41 41 42 42 41 40 40 42 43 43 41 40 41 44 46 46 46 45 42 41 43 46 49 50 49 47 46 46 45 45 45 45 45 45 46 46 47
44 45 45 45 46 49 53 56 54 48 42 38 37 36 36 37 38 38 38 37 37 37 38 38 39 40 41 42 43 43 42 42 44 45 45 42 40 39 41 43 42 41 40 41 43 46 48 49 48 46 45 44 43 43 42 42 44 45 46 46 46 47 47
39 39 40 40 38 36 38 40 37 33 32 33 34 35 35 36 36 36 37 37 37 37 38 39 39 40 41 43 44 44 42 41 42 41 38 36 36 37 38 38 39 39 42 46 50 50 48 47 46 44 41 39 38 39 40 43 45 47 47 47 47 47 46
34 34 36 36 34 32 31 31 30 30 31 33 33 33 34 35 35 36 37 38 38 38 38 39 40 41 42 43 42 38 36 35 36 35 33 34 36 39 41 43 45 47 49 50 50 49 47 46 43 38 35 35 37 41 44 46 48 48 48 47 47 45 43

ECMWFFLT1_500_spd_033.txt.gz
Wind_Speed
13 9 7 7 8 8 9 10 10 11 11 12 13 15 16 16 17 17 17 18 18 19 19 20 20 19 18 18 18 19 19 20 20 20 20 20 20 19 19 19 19 21 22 24 26 26 25 25 25 24 24 23 22 21 20 20 20 20 19 19 20 20 20
10 8 9 10 11 10 9 9 8 7 8 10 12 13 14 16 17 17 18 19 19 19 19 19 19 18 19 19 19 20 20 20 20 20 21 21 20 20 21 22 22 22 24 25 27 27 26 26 26 25 24 23 23 22 21 21 21 20 20 20 21 21 21
9 9 11 12 12 12 11 10 8 7 8 10 12 13 14 15 16 17 18 18 18 18 18 18 18 19 20 20 20 21 21 21 21 22 22 21 21 21 22 23 23 24 25 26 27 27 26 26 26 26 25 23 23 22 21 21 21 20 20 21 22 22 22
8 9 13 15 14 14 13 12 11 10 10 12 13 14 15 15 15 16 16 17 17 17 17 18 19 19 19 20 20 21 22 22 22 22 23 23 23 23 23 25 25 26 27 27 27 27 26 26 27 27 26 24 23 23 22 21 22 21 21 21 22 23 23
9 11 13 16 16 16 14 12 12 11 11 13 14 14 15 15 14 13 13 14 15 15 16 17 17 17 18 19 19 20 21 21 22 23 24 24 24 24 25 27 27 27 28 28 27 26 26 27 28 28 27 25 24 23 22 22 23 23 22 23 24 24 24
10 12 13 15 16 15 14 12 13 13 14 15 15 14 15 14 13 12 12 12 13 14 15 15 14 15 16 17 18 20 21 22 23 23 24 25 26 26 27 28 28 29 29 29 28 26 25 27 28 29 29 27 25 24 22 23 24 24 23 23 25 25 25
12 11 12 15 16 15 14 15 15 15 17 17 17 15 14 13 13 12 12 12 13 13 13 13 13 13 14 15 17 19 20 22 22 22 23 25 26 27 28 29 29 29 30 30 29 26 25 27 27 29 30 28 26 24 23 24 24 24 24 24 25 26 26
13 11 12 16 17 16 17 18 18 18 19 19 18 17 15 13 12 11 11 12 12 11 11 12 12 12 14 15 17 19 21 21 20 21 23 24 25 27 29 30 30 30 30 30 30 28 26 27 27 29 31 29 27 25 25 25 25 25 25 25 26 26 26
17 15 15 18 20 19 20 20 20 20 21 21 19 17 15 13 12 11 11 11 11 10 11 12 12 13 15 17 19 22 24 24 23 23 24 25 26 27 29 31 31 32 31 31 32 30 27 27 27 30 31 30 28 27 26 27 26 26 26 26 27 27 27
20 19 20 21 22 22 22 22 21 22 22 22 21 18 16 14 12 11 11 10 10 11 13 13 14 15 17 20 22 24 28 31 29 26 27 28 27 28 32 33 32 32 33 33 33 31 29 28 28 30 31 30 28 28 29 29 27 27 27 28 28 28 28
20 21 22 21 20 21 22 21 22 23 23 23 21 18 16 14 12 11 12 12 12 13 14 15 16 18 20 23 25 27 32 35 34 32 32 33 31 31 34 36 34 33 33 33 33 33 33 32 31 31 30 29 28 30 30 29 27 28 28 29 30 30 30
21 23 23 22 21 21 21 22 23 23 23 22 18 15 14 13 13 13 13 14 15 15 16 17 18 20 22 25 28 30 32 33 33 34 34 35 38 38 38 37 38 39 38 35 33 34 35 35 34 32 30 29 29 30 29 27 27 29 29 29 30 31 31
24 24 24 24 23 22 22 23 24 23 22 20 17 15 14 14 14 15 15 16 16 16 17 18 20 22 24 28 29 29 28 29 30 32 33 34 37 39 39 41 42 42 39 37 37 37 37 35 34 32 31 30 30 29 28 28 29 30 30 30 31 32 32
23 23 24 23 22 22 23 24 24 22 21 19 18 17 16 15 16 17 17 17 17 17 18 19 22 24 26 28 28 27 28 30 34 36 34 33 33 33 36 41 43 42 40 39 40 41 39 37 35 33 32 31 31 29 29 30 31 31 31 31 32 32 32
22 22 22 21 20 21 23 23 22 20 19 19 19 18 16 17 17 18 18 18 17 18 19 21 23 25 26 27 26 27 30 34 38 42 40 37 34 34 36 37 38 39 40 41 42 41 39 39 38 35 33 32 30 30 31 32 33 33 32 31 32 32 33
23 22 22 20 18 18 19 20 20 20 19 17 18 17 16 15 16 18 19 19 19 20 21 22 23 23 24 24 26 30 34 35 39 43 42 39 36 36 38 38 36 35 36 38 40 40 40 41 39 35 33 31 30 31 33 34 35 35 34 32 32 33 34
23 22 22 20 17 16 18 20 21 20 19 18 19 18 16 15 15 16 19 20 21 22 22 23 22 22 23 25 28 33 35 36 38 41 39 36 34 33 34 33 33 34 35 36 37 37 39 40 37 33 32 30 30 32 34 35 36 37 35 33 33 33 34
23 22 21 19 18 18 20 22 22 22 20 20 22 22 21 19 17 18 19 20 22 23 24 25 24 25 26 30 32 35 37 38 39 41 40 39 36 32 30 31 33 35 36 37 36 36 37 37 35 33 33 34 34 34 34 35 37 38 36 35 34 34 35
25 24 22 22 22 22 23 24 23 23 23 23 24 25 25 24 23 22 23 23 24 25 26 27 28 29 31 33 35 36 39 41 41 42 44 44 38 31 29 30 33 35 36 36 35 34 34 35 35 35 35 35 35 34 34 36 38 38 37 36 35 35 35
27 26 25 26 27 26 26 26 25 26 27 27 27 27 28 27 26 27 27 26 27 28 29 30 31 32 33 34 36 38 41 42 43 44 45 43 38 34 33 34 34 35 35 34 33 33 33 33 32 30 28 29 30 32 35 37 38 39 39 37 36 36 37
28 27 27 29 29 29 29 29 28 29 30 30 31 31 30 29 29 30 29 29 30 31 32 33 34 35 36 37 39 41 42 43 44 47 46 42 40 39 39 39 36 33 32 33 33 33 31 28 25 23 24 25 27 31 34 37 38 39 39 38 36 36 37
28 29 30 29 29 30 31 31 31 32 33 34 34 33 30 30 32 32 31 32 33 34 35 36 37 38 39 41 42 43 45 45 46 48 47 44 41 39 37 36 33 31 31 33 33 32 29 26 24 24 24 25 26 29 33 36 37 38 39 38 37 36 36
29 32 33 31 31 32 34 34 35 37 38 38 36 33 31 33 34 34 33 34 36 37 39 39 40 41 42 45 46 47 47 47 48 50 48 43 41 39 35 32 32 32 32 33 33 31 28 27 26 26 25 24 24 25 28 32 35 37 39 39 37 36 37
32 35 36 35 36 37 37 38 39 41 41 39 35 34 34 35 36 35 35 36 38 40 41 42 42 43 45 47 48 48 49 49 50 51 49 44 42 39 34 32 34 34 33 34 33 29 27 28 29 27 26 25 24 25 27 31 34 37 39 39 37 36 37
35 38 40 41 41 41 41 41 42 42 40 38 36 37 37 37 36 36 37 39 40 43 45 44 44 46 48 49 49 49 49 49 50 51 50 45 41 37 35 35 36 34 32 33 32 28 26 27 27 27 27 26 26 27 30 34 36 38 38 37 36 36 37
37 40 43 44 44 45 44 43 43 41 38 38 39 39 38 37 38 39 40 42 44 46 47 46 48 50 50 50 50 50 50 50 50 50 48 43 39 36 35 35 35 34 33 31 29 27 27 27 27 29 29 27 28 31 33 36 38 39 38 35 35 37 38
38 40 42 45 46 46 45 43 41 40 39 39 39 39 38 38 40 42 45 47 48 49 49 49 51 52 52 53 53 52 51 51 50 47 45 43 39 36 36 36 36 35 32 28 26 28 30 31 30 31 32 31 31 33 36 38 40 40 37 35 36 38 39
38 39 41 43 44 44 42 40 38 38 38 38 38 38 40 42 44 47 49 50 49 50 50 51 52 53 55 55 53 52 52 51 48 45 43 42 39 38 38 38 38 35 30 25 26 30 34 34 33 33 35 35 35 36 39 40 40 39 37 35 36 39 41
37 38 39 39 39 40 38 38 38 39 40 42 42 42 44 45 47 49 50 50 51 51 51 52 53 54 54 53 52 52 51 48 44 42 41 41 40 40 40 39 39 34 28 24 26 30 33 34 35 38 39 38 37 39 41 41 40 37 35 35 38 42 46
36 34 35 36 37 38 40 43 44 45 46 46 44 43 44 46 47 49 51 52 53 52 52 52 53 53 53 54 55 52 47 43 42 41 40 40 40 41 42 41 37 32 28 26 27 29 32 36 41 44 42 39 40 42 42 42 39 35 34 37 43 48 51
42 39 38 38 38 39 41 44 45 46 45 43 42 42 44 45 47 50 53 54 53 52 52 52 54 55 55 54 51 45 40 39 40 40 40 40 41 42 42 38 33 32 32 32 29 29 34 40 43 43 41 42 44 45 43 40 37 34 38 45 49 51 50
41 41 40 39 38 38 39 41 42 43 43 43 43 42 43 45 46 50 54 54 52 52 51 51 52 52 49 43 39 37 37 38 40 41 41 40 40 41 38 34 33 35 35 34 33 35 38 41 42 42 43 46 45 42 38 36 36 39 45 49 49 49 48
36 37 37 37 37 37 38 39 41 42 42 42 42 41 42 44 47 51 53 52 51 51 52 50 48 43 37 34 35 36 38 39 40 41 40 39 39 39 38 36 37 38 37 38 40 41 39 39 42 44 44 43 39 35 35 38 42 46 48 47 47 47 44
36 36 36 38 38 37 37 38 40 39 38 39 39 39 40 43 46 48 51 51 52 53 52 47 42 38 35 35 36 38 39 40 41 40 39 38 38 37 37 39 40 40 40 41 41 38 36 38 42 42 39 36 35 36 40 45 47 47 46 46 45 42 38
37 38 39 39 38 38 38 38 37 36 35 36 37 38 39 40 40 40 42 44 45 46 44 42 40 39 38 38 38 39 39 40 41 40 39 38 37 38 40 41 40 37 36 35 34 33 33 35 37 37 36 38 40 43 46 47 47 47 46 44 40 37 39
39 39 39 38 38 38 38 38 37 37 36 36 37 38 39 39 38 36 35 35 35 35 36 38 39 39 38 38 38 38 39 41 42 42 42 40 39 39 39 38 36 35 35 34 33 33 33 33 35 38 41 44 47 47 47 47 46 45 42 39 37 40 45
39 38 38 38 39 39 39 39 39 38 37 36 37 38 40 41 40 38 36 33 32 33 35 37 38 38 38 38 39 40 41 41 40 39 39 38 36 35 35 36 38 40 40 37 34 35 37 39 41 44 46 47 47 47 46 45 42 40 40 40 42 46 49
39 39 38 38 39 39 39 38 37 37 37 37 38 39 40 41 41 39 37 35 34 35 36 37 38 39 38 39 41 41 40 38 35 33 31 30 31 35 39 41 42 43 41 38 37 40 43 45 45 46 45 45 45 45 43 41 39 39 41 44 47 49 50

ECMWFFLT1_500_spd_036.txt.gz
Wind_Speed
18 16 16 14 13 11 9 8 7 8 9 11 13 15 15 15 15 15 15 16 17 18 18 18 18 18 18 18 18 17 17 18 18 18 17 17 18 18 18 18 19 19 19 19 20 21 22 23 23 23 21 20 19 18 19 20 21 20 19 18 19 18 18
15 11 12 14 13 11 9 9 9 9 9 9 12 13 14 14 14 15 16 17 18 19 19 19 18 18 17 17 17 17 17 17 18 18 18 18 17 18 18 19 20 20 20 20 20 21 22 23 24 24 22 21 19 19 19 20 21 20 19 19 19 20 19
16 12 13 15 13 12 11 11 11 10 10 10 10 11 12 13 14 15 15 16 17 18 18 18 18 18 17 17 17 17 17 18 19 19 19 17 17 18 19 20 21 22 22 21 21 22 23 23 23 23 23 22 21 19 19 20 21 20 20 19 20 21 20
19 16 16 16 14 13 12 12 11 12 12 11 10 10 11 12 14 14 15 15 16 16 17 17 17 18 17 17 18 17 18 18 19 19 18 17 18 19 20 21 22 23 24 24 23 23 23 23 23 23 23 23 22 21 20 20 21 21 20 20 21 21 21
21 20 18 17 16 14 13 13 12 13 13 12 11 11 11 13 14 14 14 15 15 16 17 17 17 17 17 17 17 17 17 18 18 18 18 18 19 21 21 22 23 24 25 25 25 25 24 24 24 23 23 23 24 23 22 21 21 21 20 20 21 21 21
19 21 19 17 16 15 14 14 14 14 15 14 13 13 13 13 13 13 14 15 15 17 18 18 17 16 16 16 16 16 17 17 18 18 18 18 20 22 22 23 24 25 27 27 27 27 26 25 25 24 24 24 25 26 24 22 22 22 21 21 22 22 22
19 21 21 20 20 18 17 16 17 17 17 16 16 15 14 14 13 14 14 15 16 18 18 18 18 17 17 17 17 17 17 18 18 18 18 19 21 23 25 26 27 28 30 30 30 29 29 27 27 27 27 26 26 27 27 25 24 23 23 22 23 23 23
18 21 21 20 21 23 22 19 19 19 19 18 17 17 16 15 15 15 15 16 17 18 18 18 18 18 18 18 18 17 17 17 18 19 21 21 22 25 28 29 30 31 33 34 34 33 32 31 30 29 29 30 30 29 29 28 27 26 25 25 25 26 25
17 19 18 17 19 24 24 21 20 21 21 20 19 18 18 17 16 17 17 17 17 17 18 19 19 19 19 18 17 16 16 16 18 20 20 20 22 26 28 29 30 32 34 36 37 37 35 35 34 32 32 34 34 33 32 31 30 28 27 27 28 28 27
18 18 17 17 19 22 24 24 22 21 22 23 21 21 20 19 19 19 19 18 18 18 19 20 20 20 19 18 16 15 16 15 15 18 19 20 22 25 28 30 31 32 31 32 34 37 38 37 36 36 37 39 38 36 34 33 32 30 29 28 29 29 28
21 20 20 20 21 23 25 25 22 22 24 25 24 23 23 22 21 19 19 20 19 20 21 21 21 20 19 16 15 16 16 14 13 15 19 21 24 27 31 34 35 34 32 30 31 33 35 35 36 38 40 40 39 37 35 34 33 31 30 29 29 29 30
23 24 22 22 23 24 26 24 21 22 24 25 26 25 25 24 22 19 19 20 21 21 21 21 20 19 18 16 16 16 16 14 14 15 18 22 24 26 29 32 32 32 32 31 32 32 31 30 32 34 36 37 37 37 37 36 34 32 30 30 30 31 31
26 26 23 23 25 25 25 23 20 22 24 26 27 27 26 25 23 20 19 20 21 22 22 21 20 20 18 16 16 15 14 15 17 17 18 20 22 24 27 29 30 30 30 30 29 29 29 29 30 30 31 33 35 36 38 37 34 32 32 32 32 32 32
23 23 22 24 25 24 24 24 23 24 26 27 28 28 28 26 24 22 21 21 21 21 21 21 20 18 16 15 15 13 14 17 20 21 21 21 22 24 27 30 31 31 31 29 26 26 28 29 30 30 29 30 32 34 35 35 34 33 32 32 33 33 33
19 20 21 23 24 25 26 25 25 26 27 28 29 29 28 26 25 24 22 22 21 21 20 19 19 18 16 16 16 16 17 20 23 25 27 27 27 27 28 30 31 31 31 30 28 28 30 31 30 29 28 29 30 32 32 33 33 32 31 31 32 33 34
20 22 23 22 22 24 25 24 24 25 26 28 29 29 27 25 25 23 22 21 20 19 18 17 18 18 18 18 18 19 22 24 26 28 30 31 30 30 29 30 31 31 31 31 31 32 33 34 32 30 28 29 30 31 30 31 32 31 30 31 32 33 34
24 24 25 24 23 24 25 23 23 23 24 26 26 26 25 24 23 21 19 18 16 16 15 16 17 18 18 19 21 23 25 26 28 30 32 32 33 33 33 32 32 31 30 30 32 33 35 36 33 29 28 29 31 31 30 31 32 31 30 33 35 35 34
28 26 26 26 26 26 25 24 23 22 22 22 23 23 23 23 22 19 17 16 15 15 15 16 16 18 19 22 24 26 27 29 30 32 33 35 36 36 36 35 33 32 30 30 31 33 35 35 33 29 29 30 30 30 30 30 32 32 32 33 34 33 32
31 28 26 26 27 27 26 24 23 22 23 24 24 24 24 24 23 20 18 18 17 17 17 17 17 19 21 23 26 28 30 31 33 34 36 37 39 39 38 37 37 35 34 32 32 33 33 32 31 30 30 31 31 30 29 28 29 29 29 29 29 30 31
32 29 27 27 28 27 26 24 23 24 27 29 28 27 27 27 25 23 23 21 20 21 21 21 21 22 23 25 27 29 32 33 35 36 37 38 41 41 40 40 39 38 37 35 34 32 30 30 30 30 29 31 32 30 28 25 25 26 28 27 27 28 28
33 32 29 29 28 28 26 24 25 28 32 33 32 31 31 30 28 27 26 24 23 25 26 26 26 27 27 28 29 31 33 35 37 38 39 41 43 44 43 42 40 40 39 37 34 31 29 30 32 32 30 31 33 31 28 25 25 27 27 26 25 26 27
35 35 32 30 29 29 27 26 28 32 35 36 35 34 34 33 30 29 28 26 26 28 29 29 29 30 31 32 33 34 36 38 40 41 42 43 45 46 46 44 42 41 40 36 33 32 31 31 32 32 31 33 34 33 29 27 28 29 27 25 25 27 28
37 37 35 33 32 32 31 30 32 36 38 38 38 37 37 35 33 31 29 28 29 31 32 32 32 32 33 35 37 38 39 41 43 44 44 46 47 48 48 45 43 43 40 35 33 32 32 32 31 31 33 36 35 33 32 31 31 31 29 28 27 28 29
37 37 36 35 33 33 34 35 36 38 41 42 42 40 38 37 35 32 31 32 32 33 33 33 34 34 36 38 40 41 42 43 45 46 46 47 49 49 48 45 44 44 39 33 32 32 31 32 31 31 35 37 35 35 36 35 35 34 32 31 30 30 30
38 37 36 35 34 34 36 38 40 42 44 46 44 42 40 39 36 34 34 35 35 35 35 35 35 36 37 40 42 43 44 45 46 47 48 49 50 50 48 44 45 44 38 32 32 31 29 30 31 31 34 36 36 37 37 36 37 37 35 35 34 33 33
40 38 37 36 36 37 38 40 43 44 46 47 46 44 42 41 38 37 37 37 37 37 36 36 36 38 40 43 44 44 46 47 48 48 48 49 51 51 49 47 47 44 37 32 32 31 29 31 31 31 32 35 37 38 36 36 37 37 37 38 38 36 36
41 40 39 38 37 38 40 42 44 46 47 48 46 44 44 43 42 41 40 39 39 38 38 38 40 42 44 45 45 46 48 49 48 47 48 49 52 54 54 53 49 42 35 32 33 32 31 32 32 30 31 33 36 37 37 37 36 37 39 42 42 42 43
42 41 40 39 38 39 40 41 43 45 47 47 46 45 44 44 44 42 41 41 40 40 41 42 44 45 45 46 46 47 49 49 48 47 47 49 52 55 57 52 44 38 34 33 33 34 34 34 32 30 29 30 32 35 36 38 39 40 42 43 45 47 47
40 41 41 42 41 39 38 39 40 42 45 46 46 45 45 45 45 43 41 41 40 41 43 44 45 46 46 46 47 49 50 51 49 47 47 49 51 54 51 44 37 35 35 34 34 35 34 32 29 28 27 28 31 34 35 37 40 41 42 44 46 47 44
38 41 42 42 41 38 37 37 39 41 44 46 47 48 49 48 44 40 39 40 40 41 42 43 45 47 48 49 50 51 50 49 49 48 48 49 50 48 43 37 35 35 35 34 33 32 30 28 27 27 27 28 30 32 34 38 40 40 42 46 46 43 40
40 41 41 40 39 38 38 38 40 43 46 48 50 52 50 44 38 37 38 40 40 41 42 42 43 45 47 50 51 50 49 48 49 50 49 46 44 42 39 38 39 38 37 35 33 31 29 28 28 29 29 29 29 31 35 38 40 42 45 45 41 37 36
41 42 40 39 39 39 39 40 42 45 47 48 49 48 43 38 36 37 38 39 40 41 42 41 41 42 44 44 44 45 46 47 48 47 43 40 40 40 41 41 41 40 38 36 35 33 30 29 29 30 29 28 29 32 34 35 38 42 42 38 35 35 38
40 40 39 39 39 39 40 41 42 44 44 44 42 40 38 37 38 38 38 39 40 41 41 41 41 41 41 40 39 39 41 41 41 38 36 36 38 40 42 43 41 40 39 39 38 37 34 30 29 28 28 29 30 32 33 35 39 40 38 35 36 40 44
38 38 38 38 39 40 40 41 41 41 42 42 41 39 38 38 37 38 39 40 40 40 40 40 40 40 40 39 38 37 36 36 35 34 34 36 38 39 41 41 40 40 41 41 40 37 33 30 27 28 30 33 34 33 35 37 38 38 37 39 43 45 46
39 39 39 39 40 40 38 38 39 38 38 39 39 38 38 38 38 40 41 41 41 41 42 41 40 40 40 39 38 37 36 35 35 35 36 37 37 38 40 41 42 43 41 40 39 35 30 28 30 33 35 36 35 34 36 37 38 39 42 45 47 47 47
39 39 40 41 40 39 38 38 39 38 38 39 39 39 39 40 41 42 42 42 43 43 42 41 40 40 40 40 40 39 38 38 37 36 37 37 37 39 40 40 41 40 37 34 31 28 27 30 36 37 35 34 34 36 37 39 41 44 46 47 47 47 46
42 41 42 42 42 42 42 41 39 39 40 40 40 39 40 42 43 43 44 44 43 42 42 41 40 40 41 41 42 41 40 40 39 38 38 38 39 39 39 37 35 35 34 30 27 27 32 39 39 36 34 35 37 39 41 42 44 45 46 46 45 44 44
45 43 42 43 44 44 43 41 39 39 41 41 41 41 43 44 45 45 45 44 42 42 41 41 41 42 42 43 43 42 41 40 39 39 39 40 40 40 39 38 36 35 35 34 34 37 42 42 37 34 35 38 39 41 42 43 44 44 44 43 43 43 44

ECMWFFLT1_500_spd_042.txt.gz
Wind_Speed
23 23 23 18 14 14 14 14 16 15 10 8 11 14 16 18 19 19 19 20 20 20 20 20 20 20 19 19 19 19 19 19 20 20 20 20 20 19 18 16 15 16 16 16 15 16 16 17 18 20 20 20 22 23 24 23 23 23 23 23 23 24 25
19 21 20 16 13 13 13 14 14 13 10 7 7 9 11 13 15 17 19 20 21 21 21 20 20 19 19 19 19 19 19 20 21 21 21 21 20 19 18 17 16 16 15 14 15 15 17 19 19 20 22 22 23 25 26 26 26 26 26 26 26 26 26
18 19 17 15 15 13 14 14 13 11 9 6 5 6 8 9 11 14 16 18 19 19 19 19 19 19 19 19 19 20 20 21 22 21 20 20 20 18 17 16 16 15 14 14 14 16 18 19 19 20 22 23 24 25 25 26 26 27 28 29 30 30 29
16 15 15 16 18 18 18 15 13 10 7 5 4 5 6 8 9 10 12 13 15 16 17 18 19 19 19 19 19 20 20 21 20 20 19 18 17 16 15 15 14 14 14 15 15 17 19 19 20 21 22 24 25 25 24 24 25 26 28 29 30 31 32
19 16 15 17 20 22 21 15 11 9 6 5 5 6 7 8 9 8 8 10 11 12 14 16 17 17 17 17 17 18 18 18 18 17 16 14 14 13 13 13 13 13 14 15 15 17 18 19 20 21 22 24 24 24 24 24 25 25 27 28 29 30 31
24 19 18 19 22 25 22 17 12 10 9 8 8 9 10 10 11 10 9 10 10 11 12 13 14 15 15 16 15 15 16 15 15 14 13 13 12 12 11 11 12 12 12 13 14 15 17 18 19 20 23 24 24 24 24 25 25 25 27 28 29 30 30
31 22 18 21 24 26 24 19 17 14 13 13 12 12 13 13 13 12 11 10 11 11 11 11 12 13 14 14 14 13 14 14 14 14 13 12 11 11 11 12 14 14 13 12 12 14 16 18 18 19 23 24 24 25 25 26 26 27 28 29 29 30 29
37 28 20 22 25 28 26 22 20 19 17 16 16 15 15 16 16 15 13 12 12 12 11 11 12 12 13 14 13 13 13 13 13 13 12 11 11 11 12 13 14 14 13 12 13 15 17 19 20 21 23 25 25 25 25 27 29 29 30 31 31 32 32
36 29 22 25 26 29 29 25 24 23 20 19 18 17 16 17 18 17 15 13 14 13 12 12 12 13 14 14 13 13 12 12 13 12 12 11 12 13 14 14 13 13 13 12 13 15 17 19 21 22 23 25 26 27 26 27 30 31 31 32 33 34 35
30 28 27 29 27 26 26 25 27 25 20 19 19 18 17 18 19 19 18 15 15 15 15 14 13 13 14 14 13 12 12 11 12 12 12 12 14 15 15 14 13 13 14 14 14 16 19 20 22 24 25 26 27 29 30 30 32 34 33 33 34 34 35
30 29 33 34 29 26 26 26 26 24 19 18 18 17 16 17 19 20 19 17 17 17 17 16 15 14 15 15 13 11 11 11 11 12 12 13 14 15 14 13 14 15 16 17 17 18 20 22 24 26 27 28 28 30 32 33 34 36 37 37 36 35 35
31 33 36 35 30 29 29 27 26 25 22 20 18 17 16 16 17 19 20 20 19 18 18 18 16 14 14 15 13 11 12 12 12 12 13 13 13 13 13 13 14 15 17 19 20 20 21 24 26 27 29 30 31 32 34 35 35 36 39 40 39 38 37
35 36 36 33 29 30 31 30 28 25 24 23 21 20 19 18 18 19 21 22 21 19 19 19 18 15 14 14 13 11 12 13 13 12 12 12 11 12 12 13 14 15 17 19 21 22 23 25 27 29 31 33 34 35 36 36 36 37 39 41 41 40 39
39 36 34 30 28 31 32 31 30 27 26 25 24 23 22 21 20 20 21 23 23 21 19 19 19 16 13 14 14 12 13 15 14 13 12 11 11 12 12 13 14 14 15 18 21 24 25 26 28 31 33 35 37 38 38 38 38 38 39 41 42 40 39
39 37 36 33 32 32 32 33 33 31 29 28 28 27 25 23 23 22 22 24 23 21 20 18 19 18 14 14 15 13 14 16 14 13 13 11 11 11 11 12 13 14 15 18 21 24 27 27 29 31 34 36 38 39 40 40 39 39 40 42 43 42 40
34 36 39 39 37 36 35 37 37 34 32 31 31 31 27 24 24 23 23 25 23 21 21 19 19 19 16 15 16 16 16 17 15 14 13 11 10 10 12 14 16 18 20 22 24 26 28 30 31 32 35 37 39 41 42 41 39 39 41 42 43 43 42
34 36 40 40 39 40 40 40 40 38 37 35 35 33 29 25 24 24 25 26 24 22 22 20 19 20 18 16 18 18 18 17 16 15 13 12 12 13 16 19 22 24 26 27 28 30 32 33 34 34 36 39 42 44 44 42 41 40 42 43 43 44 42
37 39 41 38 37 40 42 43 43 42 42 40 38 35 30 26 26 26 26 27 25 24 24 22 20 20 19 18 18 19 18 17 17 15 15 16 17 18 20 22 25 28 29 30 31 33 35 37 37 38 38 40 43 45 45 44 42 42 45 45 45 45 42
36 40 42 39 36 38 41 44 47 46 45 43 39 34 30 28 27 27 27 27 26 25 25 23 20 20 20 19 18 18 17 18 18 17 17 19 20 21 22 24 27 29 31 33 34 35 37 37 38 40 41 41 43 45 46 44 43 47 49 47 47 46 43
35 40 43 41 39 40 40 42 46 48 46 43 39 35 32 31 29 28 28 28 27 26 26 23 20 19 20 19 18 17 17 19 19 19 20 21 22 23 25 26 28 31 33 35 36 38 38 38 39 41 43 44 45 46 47 46 46 51 52 50 49 46 41
41 42 42 41 39 40 41 40 41 42 44 43 40 37 35 33 31 30 29 29 28 27 25 22 18 17 18 19 18 18 19 20 21 22 22 23 24 25 26 28 30 32 34 36 38 41 41 42 44 45 46 47 47 47 48 48 49 53 54 52 50 43 38
53 53 52 51 48 46 45 43 38 36 40 43 42 40 38 36 34 32 30 30 29 27 25 22 18 18 19 19 19 19 20 22 23 24 24 25 26 27 28 30 31 33 36 38 40 42 43 44 47 48 49 50 50 50 51 49 50 53 53 49 44 39 36
58 59 59 59 57 53 50 47 41 37 40 43 43 42 41 40 37 34 32 32 30 28 26 24 21 20 20 21 21 21 23 25 26 27 28 29 29 30 31 32 33 35 37 39 41 44 46 47 48 50 52 53 52 53 52 50 50 53 50 44 39 37 37
57 57 58 56 53 51 51 50 47 43 42 43 44 44 43 43 40 36 34 33 32 29 27 26 24 22 23 24 24 25 27 29 30 31 33 33 33 33 34 34 35 36 38 40 43 46 48 49 50 51 52 52 52 52 52 51 52 51 46 39 36 37 38
50 53 55 53 48 47 50 52 51 48 46 46 47 46 46 46 44 40 36 34 33 31 29 28 27 25 26 28 29 29 31 32 34 36 38 38 39 39 38 36 37 38 39 42 45 48 49 49 50 52 51 51 52 52 51 51 50 47 43 39 38 38 38
40 48 51 48 42 43 50 53 51 50 49 48 48 48 48 48 47 43 38 36 35 33 31 30 29 28 30 31 32 34 35 37 39 41 42 43 44 44 41 39 39 40 41 43 46 48 49 49 50 51 51 51 52 50 48 47 45 43 42 42 41 40 40
37 41 43 40 38 43 50 51 48 48 49 50 51 52 50 50 49 45 41 39 37 34 33 32 31 32 33 34 37 39 40 42 43 45 47 48 47 46 43 41 42 43 44 45 47 48 49 50 50 51 51 52 51 49 46 43 41 41 42 43 42 41 41
38 38 37 38 41 47 48 45 42 44 48 50 53 55 54 52 51 48 43 41 38 36 35 34 34 34 36 39 42 42 42 44 46 47 49 50 48 47 46 44 44 44 45 46 47 48 49 49 50 51 52 51 51 48 45 42 41 42 43 42 41 40 41
39 40 39 40 44 46 45 42 41 44 47 50 53 56 55 54 52 48 44 42 40 38 37 36 36 37 38 41 43 42 42 45 47 48 50 51 50 50 49 46 43 43 46 48 48 48 48 48 50 52 52 51 50 48 44 42 42 43 43 43 43 42 41
37 42 41 39 41 45 44 43 44 47 49 50 53 55 56 54 51 48 45 43 41 39 38 38 39 40 40 41 42 42 44 46 48 50 52 54 53 53 53 50 44 43 46 49 48 48 48 48 50 51 51 51 51 48 46 44 45 45 44 43 43 40 38
34 42 44 40 42 47 49 48 48 50 51 53 55 56 55 52 50 48 46 43 41 41 41 42 42 42 42 43 44 45 47 48 49 52 54 56 56 57 57 52 45 43 46 48 48 47 48 50 51 51 51 51 51 49 48 47 47 47 44 42 41 39 36
36 42 47 46 47 52 54 53 52 52 54 55 56 55 53 51 49 47 45 44 43 43 44 44 44 44 45 46 47 48 49 50 52 54 56 58 58 57 53 46 41 42 45 47 47 48 49 51 52 52 52 52 51 49 48 48 48 47 44 42 41 38 37
39 44 48 52 55 56 54 51 49 50 53 54 55 54 52 49 46 45 45 46 45 45 44 45 45 46 48 48 48 49 50 52 54 55 56 56 53 47 42 40 40 43 45 46 47 48 50 51 52 52 52 52 50 49 48 47 47 46 43 41 39 39 40
42 44 46 50 53 53 51 47 45 46 49 51 52 51 49 46 46 46 47 47 46 45 45 45 47 48 48 49 49 51 52 53 52 49 47 45 43 40 40 41 42 44 45 46 48 49 50 51 51 51 52 51 49 48 47 47 46 44 42 40 40 42 43
41 41 43 46 48 48 49 46 42 40 41 43 43 44 45 45 46 46 46 46 46 46 47 47 47 48 49 50 50 50 49 48 46 43 40 40 41 42 43 43 43 44 46 48 49 50 50 51 51 51 51 50 49 47 46 45 44 43 42 42 42 42 41
41 39 41 44 45 45 45 42 36 34 36 38 39 41 44 45 46 46 46 47 48 48 48 48 47 48 49 48 46 44 43 43 43 42 42 43 44 45 44 44 45 46 48 49 50 50 50 50 50 50 50 48 47 46 45 45 44 44 43 43 42 41 41
43 40 37 36 34 34 35 34 32 33 36 38 41 43 43 45 46 47 48 49 49 49 48 47 47 48 47 44 41 41 42 43 44 44 45 45 46 45 45 46 47 48 49 50 49 49 49 50 50 49 47 46 45 44 44 45 45 45 44 42 41 41 43
31 31 30 28 26 25 27 30 33 35 37 38 40 42 43 44 46 47 48 49 48 48 48 48 48 48 46 44 43 44 45 45 47 48 48 47 46 47 48 48 49 50 50 49 48 48 49 48 48 46 45 44 44 44 44 45 45 45 44 42 40 42 44

ECMWFFLT1_500_spd_045.txt.gz
Wind_Speed
22 22 21 20 20 20 18 18 18 16 15 18 19 19 18 19 20 19 20 20 19 18 18 17 17 17 17 17 18 17 16 15 15 15 15 14 15 16 16 14 13 12 12 12 12 11 11 12 12 13 15 16 16 16 17 18 19 18 18 20 22 23 23
22 21 19 18 19 19 18 18 19 16 15 18 19 19 18 19 20 20 21 22 21 20 19 18 18 18 18 19 19 18 17 16 16 16 16 15 16 16 15 12 11 12 11 11 11 11 11 12 13 14 14 13 14 15 16 17 18 18 18 19 22 23 24
20 20 19 20 19 19 20 20 20 18 17 18 18 17 17 17 18 19 20 21 21 19 17 17 17 18 18 19 19 18 17 17 17 17 16 16 15 14 12 10 9 9 9 9 10 11 11 12 13 14 13 12 13 15 16 17 18 19 19 19 21 23 24
20 20 20 20 18 19 22 22 21 21 20 19 18 17 17 17 17 17 17 17 17 15 15 15 16 17 18 18 18 18 17 17 17 16 16 15 13 11 10 8 7 6 7 8 10 10 10 10 11 13 13 13 14 16 18 19 19 20 20 21 22 23 25
21 21 21 20 17 19 22 22 22 23 21 20 19 17 17 17 17 16 15 15 13 13 13 13 14 14 15 16 16 16 15 14 14 14 13 12 10 9 8 7 5 6 6 7 9 10 10 11 12 13 14 14 16 18 19 20 21 21 22 22 23 25 26
21 20 20 18 17 18 20 21 21 22 22 21 20 18 18 18 16 14 13 13 11 10 10 9 10 11 12 12 12 12 11 12 12 12 11 10 9 8 7 6 6 6 6 7 9 10 11 12 13 14 15 16 17 19 20 21 22 23 23 24 25 26 27
22 21 20 17 16 15 16 17 19 21 23 23 22 21 21 20 17 14 12 11 10 9 8 7 8 8 9 9 8 9 10 11 11 12 10 9 8 8 7 6 6 6 7 8 8 9 11 12 13 15 16 18 19 20 21 22 23 23 24 26 27 27 29
23 24 23 20 16 15 15 15 17 21 25 25 24 24 23 22 19 15 12 10 9 9 7 6 7 7 7 7 7 8 9 10 11 11 10 8 8 8 7 6 6 6 8 9 9 9 10 12 14 16 18 19 20 21 22 23 24 24 26 27 29 29 29
23 23 25 23 18 19 19 18 18 23 27 29 28 26 25 24 21 16 13 11 10 9 7 6 6 7 7 6 7 8 9 10 11 10 9 8 8 8 7 7 7 7 8 8 9 10 11 13 15 17 19 20 21 22 23 24 26 27 28 30 31 30 30
28 24 24 22 22 24 24 21 21 22 26 30 30 27 26 24 22 18 15 12 11 10 9 8 8 7 7 6 7 8 8 10 11 10 9 9 8 8 7 8 8 8 8 8 9 11 13 15 16 18 19 21 22 24 26 27 29 30 32 32 33 33 32
31 29 27 25 25 27 27 25 24 21 23 29 30 28 25 24 23 20 17 14 12 11 11 11 10 9 8 7 7 7 9 10 10 10 9 9 9 8 8 9 9 9 9 9 9 11 14 15 16 17 19 21 23 26 28 30 31 33 34 34 34 34 33
27 30 30 27 27 29 29 28 27 23 23 28 30 29 26 25 24 22 19 17 15 14 14 13 12 10 10 10 8 8 10 11 11 10 10 10 10 9 8 8 8 9 10 10 10 10 12 14 16 17 19 21 24 26 28 31 33 35 36 35 36 36 34
25 29 30 28 27 29 29 29 29 26 25 26 28 29 27 27 26 24 21 19 17 16 16 15 14 12 12 12 10 10 11 12 12 12 11 11 11 9 8 8 8 10 11 11 9 9 11 14 17 19 21 23 25 27 29 32 34 36 37 36 37 38 36
26 29 31 29 28 30 30 31 30 29 28 28 28 29 29 29 28 26 23 21 19 19 18 18 16 14 13 13 12 11 12 13 14 13 12 12 11 10 9 9 9 10 10 9 10 11 14 16 19 22 24 26 28 29 30 33 36 38 39 39 39 39 38
28 31 31 31 32 33 33 33 33 33 33 33 31 31 30 30 29 27 24 22 21 21 20 19 18 16 14 14 13 12 13 16 16 14 14 13 11 11 12 11 10 9 8 10 13 16 18 19 21 24 26 29 31 32 33 35 38 40 42 42 42 42 41
29 29 29 31 35 37 37 37 38 38 36 35 34 33 32 30 28 27 25 23 23 23 22 21 20 18 16 14 14 15 16 18 18 16 15 14 13 13 14 13 11 10 10 12 15 18 20 21 22 25 27 29 31 33 34 37 39 41 43 45 47 47 46
33 32 32 35 39 41 41 42 41 38 36 35 35 33 32 32 31 28 25 24 24 25 24 24 22 20 18 15 15 17 19 19 19 19 17 15 15 16 15 14 13 13 14 14 16 19 21 21 23 25 27 27 29 32 35 38 41 42 44 47 49 49 47
37 39 39 41 43 43 43 43 41 39 37 36 36 36 34 33 32 30 28 25 25 26 26 26 24 22 20 18 17 19 21 21 20 20 19 17 16 17 17 16 16 16 17 17 18 20 22 22 24 26 27 28 29 32 35 38 41 44 45 47 48 47 44
41 42 42 44 46 47 46 45 44 44 43 40 39 40 38 36 34 33 31 29 28 28 29 28 26 24 22 21 20 21 22 22 21 20 20 18 18 19 18 17 18 18 19 20 21 23 24 24 26 28 30 30 31 34 37 39 42 45 46 48 49 47 43
46 46 46 48 50 49 47 48 48 46 43 42 41 42 41 39 37 37 36 34 32 32 31 30 28 27 25 23 22 22 23 22 21 21 20 20 20 20 19 18 19 20 22 23 24 26 26 27 28 31 32 32 33 36 39 41 43 45 46 48 50 48 44
46 47 48 49 50 48 47 48 48 44 41 40 40 40 40 40 40 40 39 37 35 34 33 32 30 30 28 25 24 24 24 22 22 22 21 21 21 21 20 20 20 22 24 26 27 29 29 29 30 33 34 35 36 38 41 42 43 45 46 48 50 48 43
44 46 46 46 45 44 43 44 44 43 42 41 39 37 37 40 42 42 41 40 38 36 35 34 33 32 30 27 26 26 24 23 23 23 22 22 22 21 21 21 21 23 26 28 29 31 31 31 33 35 36 37 38 40 42 43 44 45 46 47 49 46 42
48 47 45 43 42 41 40 41 43 43 42 43 42 38 36 39 43 43 42 42 40 39 38 36 35 34 32 29 27 27 25 24 24 24 23 23 22 22 23 23 24 27 29 30 32 34 34 34 36 37 38 38 40 41 43 44 45 45 46 47 48 47 44
58 53 48 46 46 46 43 41 43 48 47 44 43 40 36 38 42 44 44 43 41 41 41 39 37 36 34 31 28 27 25 24 25 24 23 23 24 25 26 27 28 31 32 33 36 37 37 39 40 40 39 40 42 42 43 44 45 46 47 47 47 47 46
60 58 55 52 52 53 51 47 49 55 56 49 45 43 41 40 42 44 46 44 43 44 44 42 39 37 35 32 29 27 26 25 25 25 24 25 27 28 29 31 32 34 35 37 39 41 42 43 43 42 42 43 43 43 43 44 45 47 47 47 47 47 47
57 60 60 60 60 59 56 55 57 62 62 56 51 51 51 49 47 48 49 47 45 47 47 45 42 39 37 34 31 29 28 27 27 27 27 29 30 31 32 34 35 36 38 40 42 44 45 46 44 43 43 45 45 44 43 44 46 47 48 48 47 47 46
48 50 51 55 62 66 64 62 62 65 65 62 59 59 59 56 52 51 52 50 47 48 49 47 44 41 39 36 32 30 29 28 28 29 30 32 33 34 36 37 37 38 40 42 44 46 47 48 46 44 44 45 46 45 44 45 47 48 48 48 47 47 46
41 42 41 40 46 58 67 67 64 65 65 64 64 64 61 56 52 52 54 52 49 49 50 48 46 44 40 37 33 31 29 29 31 32 33 34 35 36 38 38 38 39 40 42 45 47 49 50 49 49 48 47 45 44 44 46 47 48 49 48 47 47 47
41 42 43 39 36 43 57 65 66 67 67 67 68 67 63 58 54 52 53 53 52 51 51 50 48 46 43 39 35 32 31 33 34 35 35 36 37 40 41 39 38 39 41 44 47 49 51 52 51 50 47 42 40 42 44 46 47 48 48 48 47 48 48
48 47 47 45 41 39 45 53 58 61 64 65 65 64 61 58 53 50 51 55 55 54 52 51 50 48 45 41 36 34 36 37 37 38 38 39 40 41 41 39 38 40 43 46 48 50 51 50 47 43 39 37 39 42 45 46 47 48 47 47 47 48 47
55 54 52 50 48 46 46 48 51 53 56 56 54 54 55 54 49 48 52 55 56 56 53 51 51 50 46 42 38 38 39 40 40 41 41 41 40 39 39 39 40 42 45 47 47 48 47 45 41 38 38 40 42 44 46 47 47 46 46 47 47 46 45
59 58 56 54 52 51 51 52 52 54 55 53 49 50 51 49 47 49 52 52 53 55 54 51 50 49 46 42 41 42 41 40 41 41 40 39 38 38 39 40 42 45 46 46 44 44 43 41 39 39 40 42 44 46 48 48 46 45 46 47 47 45 43
59 60 59 57 54 52 53 55 55 55 55 54 55 54 51 48 48 48 49 52 54 54 53 51 47 46 46 44 43 43 42 40 40 39 39 39 40 40 40 43 45 46 45 43 42 41 40 40 40 40 42 44 46 48 49 48 46 46 46 47 46 43 41
55 56 56 56 54 51 51 53 53 52 51 52 57 57 52 51 53 50 46 51 55 54 51 49 46 45 46 46 44 43 42 40 39 39 40 41 41 42 43 45 45 44 42 41 40 40 40 41 41 42 44 46 47 48 49 48 47 46 46 45 42 40 40
50 49 50 53 54 52 51 52 52 51 50 51 56 58 53 52 56 54 47 45 50 53 50 46 44 45 46 46 45 44 42 40 40 40 42 42 42 43 44 43 42 42 41 40 39 40 42 42 43 44 46 47 48 49 49 49 47 45 43 41 40 40 40
46 44 45 49 51 51 52 54 55 54 52 51 56 60 58 53 54 55 49 42 43 48 46 42 41 43 44 45 45 44 42 41 41 42 42 43 43 43 42 41 41 41 41 40 40 41 43 43 45 47 47 47 48 49 48 46 44 42 40 40 40 40 41
44 43 44 46 50 53 54 55 56 57 55 53 55 60 60 55 51 50 46 40 38 39 38 38 40 42 43 44 44 43 43 43 42 42 42 43 43 41 41 41 42 42 42 42 42 43 44 45 47 48 47 47 48 47 45 43 41 40 39 39 40 40 41
41 43 43 43 44 48 54 55 54 54 54 52 52 54 53 50 49 47 41 36 35 34 35 40 43 43 42 42 42 43 44 44 43 43 43 44 43 41 42 43 43 43 43 43 44 45 46 47 48 49 48 48 47 44 42 41 40 39 39 39 40 40 40

ECMWFFLT1_500_spd_048.txt.gz
Wind_Speed
21 21 21 21 20 20 19 19 20 20 19 19 19 20 19 18 18 17 17 17 17 18 18 18 19 18 16 16 16 17 16 16 15 15 15 14 13 13 13 13 14 13 12 11 10 8 7 6 7 8 9 9 10 9 10 11 12 13 14 15 15 15 16
22 22 21 20 21 21 20 20 22 22 21 20 21 22 21 20 19 19 20 20 20 21 21 21 21 20 19 19 19 18 18 18 17 17 16 16 15 14 14 14 14 14 12 10 9 7 5 5 6 8 9 9 9 9 10 11 13 14 15 16 16 16 17
22 23 22 21 21 20 20 22 24 24 22 21 22 23 21 21 20 21 22 22 23 23 23 23 22 22 22 21 20 20 20 20 19 18 18 18 17 16 14 14 14 13 11 9 7 5 4 4 5 6 8 9 9 10 11 13 14 14 15 16 16 17 18
19 21 21 21 21 21 22 24 25 24 22 23 23 23 22 22 21 22 22 22 22 22 22 23 24 25 24 22 22 21 21 21 20 20 20 19 18 16 14 14 14 12 10 9 6 4 4 4 5 5 7 9 10 11 12 14 14 15 16 17 18 18 19
14 17 19 20 21 22 24 24 24 23 23 24 24 23 23 22 22 21 21 21 21 21 22 24 26 26 24 23 22 22 21 20 20 20 20 19 17 16 15 13 13 12 10 8 6 4 4 4 5 6 7 9 11 12 13 14 15 16 17 18 19 20 20
12 15 18 21 22 21 22 22 22 22 23 23 22 22 22 21 20 20 20 20 20 20 22 23 23 23 23 22 22 21 20 20 20 20 19 18 17 15 14 13 12 12 11 8 6 5 4 5 5 7 8 10 12 13 14 15 16 18 19 19 20 20 21
14 15 16 20 22 21 21 22 21 21 22 22 22 22 21 20 19 18 18 19 19 19 20 20 20 20 20 20 20 19 18 19 19 19 19 18 16 15 14 13 13 12 10 8 6 5 5 5 6 8 9 11 13 14 15 16 17 19 21 21 21 22 22
16 16 14 18 21 21 23 23 23 22 22 21 22 21 19 18 18 17 17 18 18 18 18 18 18 18 18 18 18 17 17 18 19 19 18 17 15 15 14 14 13 12 10 8 7 6 6 6 7 9 11 12 13 14 16 17 19 21 22 22 22 23 24
20 18 13 15 21 22 24 24 23 23 22 20 19 18 18 19 19 18 17 18 18 18 17 18 18 18 18 18 17 17 17 17 18 18 17 16 16 15 14 14 14 12 10 8 8 7 7 8 9 10 12 12 13 15 16 18 20 21 21 21 22 24 24
21 20 14 14 19 23 24 23 23 22 20 18 16 16 19 20 21 20 18 17 17 17 17 17 18 18 17 17 17 16 16 16 17 17 16 16 16 16 15 15 14 11 10 9 8 9 9 9 10 11 11 12 14 15 17 19 20 20 20 22 23 25 26
21 21 17 15 21 25 26 26 25 23 20 18 16 16 17 20 22 22 20 18 17 17 17 17 18 17 17 16 16 15 15 16 16 16 16 16 16 16 16 15 13 12 11 10 10 10 10 11 11 11 11 12 14 16 18 19 19 20 21 23 25 27 28
22 23 20 18 22 28 31 32 29 25 23 20 18 18 18 20 23 23 21 19 18 18 18 18 18 18 17 16 16 14 14 15 15 15 16 16 16 17 17 15 14 13 12 11 12 12 12 12 11 10 11 13 15 17 19 20 20 21 23 24 26 28 30
22 23 23 20 21 28 34 36 33 29 26 23 22 22 21 22 24 24 22 21 20 21 20 20 21 20 19 18 16 15 14 14 14 16 17 17 18 18 17 16 15 14 14 14 14 13 13 12 11 10 12 14 16 18 20 21 22 23 25 26 26 29 32
21 21 19 17 19 24 32 35 34 31 28 26 26 25 23 23 23 23 23 23 23 24 23 23 23 22 20 19 19 17 15 15 15 16 18 19 19 18 17 16 15 15 16 16 15 14 13 12 11 12 13 16 18 20 21 22 23 25 26 27 27 29 32
25 22 21 20 20 21 26 31 32 31 29 28 28 27 25 23 22 21 23 25 26 26 26 26 25 23 21 20 20 19 18 17 17 17 18 19 18 17 16 16 17 17 17 17 16 15 13 12 12 12 14 17 20 21 23 24 25 26 28 30 30 31 33
26 26 26 26 25 23 25 29 32 32 31 30 30 29 26 25 24 23 23 25 27 28 28 28 27 24 21 19 20 21 21 21 20 19 19 18 18 17 18 18 19 19 18 18 17 15 13 13 13 13 15 19 21 23 25 26 27 29 31 33 34 35 33
26 26 28 28 27 26 28 31 34 35 34 32 31 30 29 28 28 26 24 25 28 29 29 29 27 25 23 20 20 22 23 24 23 22 21 19 18 19 20 21 21 20 20 20 17 15 14 14 14 15 17 20 22 24 26 28 29 31 34 37 39 38 33
27 28 30 30 29 29 31 34 37 37 36 34 33 31 31 30 30 30 27 25 27 29 29 29 28 26 25 24 24 24 25 26 26 24 22 21 20 20 22 23 22 21 21 20 18 16 16 15 15 17 19 21 23 26 27 28 31 34 37 40 41 37 33
31 32 30 30 31 31 32 35 37 39 38 37 35 32 32 32 31 31 29 26 26 28 30 31 29 28 27 27 27 27 26 27 28 27 25 23 22 23 24 25 24 23 22 21 20 19 18 17 18 19 21 23 25 27 27 29 32 35 37 41 41 38 36
38 37 33 31 32 33 33 33 35 36 36 37 36 35 35 37 36 35 33 30 29 30 31 32 32 31 30 30 29 29 29 29 29 28 27 25 25 25 25 26 25 25 24 23 21 20 19 19 19 20 23 25 27 27 28 31 34 36 36 38 41 43 42
41 42 41 37 35 35 34 34 34 35 35 37 39 39 40 41 40 39 38 37 36 36 34 33 34 33 33 32 32 31 31 31 31 30 29 28 27 27 26 26 26 26 26 24 22 21 21 21 21 22 25 27 28 29 30 33 35 36 36 37 39 44 44
41 44 46 43 41 39 37 37 38 40 40 40 42 42 43 44 44 43 42 42 41 41 38 36 36 36 36 34 34 33 32 32 32 32 31 31 29 28 27 27 27 27 27 25 23 23 22 21 22 23 26 28 30 31 33 35 36 36 38 39 40 43 45
45 44 45 46 46 45 44 43 43 44 45 44 45 46 46 46 47 47 47 45 42 41 41 38 37 37 38 37 36 34 34 34 34 34 34 33 31 30 28 27 27 27 27 27 25 24 23 22 23 25 28 29 32 33 35 36 38 39 41 42 44 46 46
48 46 46 45 45 47 50 50 48 48 47 47 47 48 49 49 50 50 50 48 43 41 41 40 36 36 38 40 39 37 35 35 35 36 35 34 33 31 29 28 28 28 28 28 26 25 25 24 25 27 29 31 33 34 36 38 40 42 44 46 47 48 46
51 49 47 46 45 45 47 50 51 52 53 52 50 48 48 49 51 52 51 50 47 44 43 42 39 37 37 39 41 41 39 37 36 37 37 36 35 33 30 29 29 30 30 29 28 27 27 26 26 28 29 31 32 34 37 39 41 45 46 44 43 42 40
56 54 53 51 49 48 48 48 49 51 53 55 53 50 48 49 51 53 52 50 48 46 44 44 44 42 42 42 42 42 41 39 38 38 38 37 37 35 32 30 31 32 31 30 29 29 27 27 27 28 29 30 32 35 37 39 42 43 41 37 36 36 37
51 55 58 59 57 56 55 53 51 50 51 52 52 53 54 55 55 56 56 55 53 50 47 46 47 48 48 47 45 43 41 40 40 39 38 38 39 37 34 33 34 33 32 31 31 30 29 29 29 29 29 31 32 35 37 38 39 37 35 35 36 37 38
43 46 53 58 59 60 61 60 59 57 54 53 54 55 57 59 60 60 60 61 60 57 52 50 50 51 52 51 48 46 44 41 41 41 40 39 40 39 37 37 37 35 34 34 33 32 32 31 30 29 30 31 32 34 36 37 37 36 35 37 39 40 40
44 43 45 50 53 56 59 63 65 64 62 60 60 61 61 62 62 62 61 62 61 59 56 55 54 53 53 53 51 48 46 44 42 42 41 40 40 41 42 41 39 38 38 37 35 35 35 33 31 30 31 32 33 35 36 37 37 36 37 39 41 41 42
47 47 46 47 48 49 51 55 60 64 65 63 64 67 69 68 66 64 63 63 62 61 60 59 58 56 55 55 52 48 46 45 44 44 43 42 42 44 45 44 43 41 40 38 38 39 37 34 32 32 33 33 34 35 36 37 37 37 39 42 43 43 44
49 49 49 48 49 49 48 48 49 52 53 53 55 60 66 70 72 70 68 67 66 65 64 63 62 60 59 58 56 53 50 49 48 47 46 45 45 46 48 48 46 44 41 40 41 41 37 33 34 35 34 33 34 35 36 36 37 39 41 44 45 45 46
50 50 50 50 51 51 51 49 47 46 47 47 46 48 53 60 66 71 73 74 74 73 70 67 66 66 66 66 67 65 60 56 54 51 49 50 49 49 51 51 48 44 43 43 44 42 37 35 36 37 34 33 33 35 36 36 38 40 42 45 46 47 46
53 52 52 52 53 52 52 52 51 49 49 49 49 50 50 51 55 60 65 70 76 79 79 77 74 73 72 73 75 75 69 62 58 55 53 53 52 52 53 51 47 45 46 46 45 42 38 38 39 37 34 34 34 35 36 37 38 41 43 44 45 45 45
55 54 53 53 54 54 53 54 55 55 54 55 55 56 56 56 55 55 57 61 68 75 79 81 81 80 79 78 79 80 75 66 62 58 56 55 54 54 52 50 47 46 47 46 42 39 38 39 39 37 35 35 35 35 36 38 40 42 43 44 45 45 45
52 52 52 52 52 52 52 53 55 56 56 58 59 60 62 63 62 62 62 63 64 67 70 73 76 76 77 78 80 79 72 64 61 60 57 55 55 54 51 49 47 47 47 44 40 38 39 41 41 37 36 37 38 38 39 40 42 43 45 45 46 46 45
49 49 49 48 49 50 50 50 51 52 53 55 56 58 60 62 64 66 68 68 69 69 67 67 69 71 71 71 70 66 62 58 57 58 56 54 55 54 52 49 48 47 45 43 40 39 41 41 40 38 39 40 40 40 41 43 44 46 47 47 47 46 44
48 47 47 47 48 49 49 49 49 49 50 50 51 52 55 58 60 62 64 66 69 70 66 63 65 69 68 65 62 59 59 56 53 54 54 53 54 54 52 50 48 45 43 41 40 40 41 40 39 40 41 42 42 43 43 45 46 47 47 46 45 44 43
46 46 46 47 47 48 49 48 48 48 47 47 47 49 50 50 51 53 58 64 67 67 66 64 62 62 61 58 53 52 53 50 49 51 53 53 54 52 50 47 45 43 42 41 41 41 41 41 41 42 43 43 43 44 44 46 47 47 46 45 44 42 41